GEFSMA_prec_meanprecacc_258.txt.gz
Total_Precipitation_Accumulation
2.78 2.76 2.70 2.72 2.51 2.70 2.88 3.24 3.14 3.32 3.29 2.91 2.50 2.35 2.38 2.43 2.35 2.48 2.74 2.74 2.59 2.67 3.43 3.85 3.70 3.36 2.88 2.40 2.13 1.98 1.90 1.71 1.52 1.25 1.16 1.27 1.30 1.29 1.16 0.95 0.83 0.72 0.59
3.13 3.12 2.98 2.97 2.74 2.72 3.02 3.34 3.34 3.81 3.70 3.51 2.99 2.72 2.54 2.50 2.48 2.62 2.91 3.08 3.00 2.98 3.42 3.94 4.15 4.05 3.59 3.00 2.52 2.21 2.14 2.05 1.83 1.42 1.25 1.36 1.44 1.39 1.32 1.16 0.95 0.80 0.65
3.26 3.18 3.15 3.03 3.01 3.02 3.24 3.34 3.48 3.87 3.64 3.55 3.37 3.08 2.86 2.64 2.50 2.71 3.09 3.40 3.06 2.99 3.37 3.86 4.26 4.21 4.02 3.69 3.15 2.73 2.39 2.16 2.00 1.68 1.37 1.26 1.30 1.28 1.22 1.21 1.05 0.84 0.63
3.28 3.36 3.15 2.99 3.17 3.22 3.44 3.72 3.71 3.80 3.89 3.82 3.62 3.29 3.17 3.05 2.58 2.66 2.84 3.02 3.21 2.79 3.22 3.86 4.12 3.88 3.89 4.05 3.95 3.66 3.18 2.60 2.29 1.96 1.64 1.47 1.40 1.32 1.20 1.15 1.06 0.88 0.64
3.14 3.48 3.32 3.35 3.40 3.63 3.58 3.28 3.81 3.98 3.95 3.87 3.38 3.33 2.97 2.92 2.80 2.60 2.73 2.81 3.00 2.95 3.01 3.14 3.68 3.51 3.70 4.21 4.49 4.57 4.25 3.62 2.94 2.47 2.11 1.86 1.75 1.53 1.29 1.16 1.04 0.85 0.66
3.09 3.42 3.25 3.26 3.49 3.87 3.98 3.88 4.11 4.00 3.86 3.92 3.31 3.12 2.81 2.55 2.55 2.48 2.31 2.58 2.68 2.41 2.56 2.77 3.18 2.72 2.94 3.45 3.96 4.55 4.82 4.68 3.97 3.19 2.83 2.59 2.42 2.00 1.49 1.22 1.06 0.91 0.73
3.05 3.43 3.12 3.53 3.58 3.76 3.95 3.95 4.15 4.05 3.81 3.90 3.83 3.29 2.71 2.34 2.26 2.11 2.13 2.35 2.28 2.32 2.62 3.01 3.25 3.19 2.82 2.76 3.03 3.70 4.60 5.12 4.85 4.12 3.68 3.39 3.16 2.66 1.90 1.47 1.16 0.95 0.83
2.92 3.03 3.53 3.50 3.59 3.78 3.82 3.80 3.89 3.72 3.45 3.75 3.93 3.75 3.07 2.66 2.26 1.85 2.05 2.08 2.21 2.46 2.49 2.54 2.94 3.30 3.15 3.17 2.74 2.73 3.82 4.89 5.36 5.13 4.76 4.36 3.92 3.14 2.39 1.89 1.43 1.10 0.96
3.03 3.16 3.41 3.50 3.54 3.42 3.61 3.80 3.61 3.56 3.44 3.50 3.71 3.84 3.33 2.79 2.33 1.99 1.85 1.91 2.29 2.53 2.43 2.38 2.36 2.60 2.70 3.14 3.30 2.82 2.98 3.40 4.20 5.21 5.57 5.36 4.55 3.38 2.63 2.24 1.92 1.48 1.13
2.85 2.96 3.11 3.29 3.42 3.33 3.45 3.36 3.37 3.48 3.45 3.30 3.46 3.39 3.23 3.01 2.84 2.43 2.03 1.88 2.09 2.26 2.26 2.07 2.10 2.39 2.54 2.99 3.20 2.68 2.36 2.29 2.62 3.76 4.87 5.11 4.62 3.54 2.77 2.52 2.49 2.17 1.59
2.69 2.66 2.84 3.07 3.21 3.09 3.03 3.24 3.49 3.42 3.24 3.17 3.31 3.32 3.45 3.30 2.97 2.81 2.44 2.17 2.00 1.82 1.94 1.98 1.98 2.07 2.31 2.69 2.91 2.42 2.26 2.04 1.95 2.32 3.10 3.71 3.92 3.58 3.07 2.94 3.13 3.09 2.63
2.62 2.56 2.64 2.93 3.02 2.95 2.91 3.01 3.07 3.09 3.06 3.17 3.19 3.11 3.27 3.26 3.13 3.14 2.75 2.37 2.10 1.71 1.67 1.73 1.82 1.93 2.08 2.27 2.07 1.97 2.06 1.89 1.75 1.75 2.01 2.47 2.91 3.13 3.05 3.14 3.41 3.58 3.54
2.54 2.53 2.50 2.64 2.57 2.56 2.65 2.86 2.87 2.80 2.83 2.96 2.92 2.93 2.87 2.79 2.87 2.97 2.90 2.47 2.13 1.69 1.67 1.59 1.61 1.77 1.70 2.01 2.10 1.98 1.87 1.75 1.64 1.62 1.67 1.77 2.04 2.32 2.59 2.82 3.22 3.61 3.78
2.46 2.41 2.34 2.29 2.22 2.23 2.29 2.59 2.69 2.63 2.68 2.70 2.62 2.79 2.61 2.45 2.61 2.65 2.73 2.81 2.56 2.24 2.14 1.93 1.58 1.55 1.68 1.86 1.97 1.92 1.70 1.68 1.53 1.48 1.48 1.49 1.60 1.74 1.92 2.17 2.47 2.71 2.96
2.13 2.17 2.15 2.06 2.00 2.08 2.19 2.29 2.31 2.30 2.39 2.37 2.44 2.47 2.29 2.26 2.37 2.38 2.55 2.79 2.85 2.66 2.51 2.30 1.86 1.60 1.65 1.85 2.09 1.86 1.79 1.68 1.52 1.43 1.35 1.33 1.36 1.42 1.51 1.64 1.84 2.02 2.12
2.12 2.04 1.97 1.88 1.88 1.91 1.96 2.08 2.05 2.10 2.09 2.09 2.25 2.29 2.24 2.20 2.32 2.27 2.33 2.54 2.73 2.78 2.55 2.27 2.02 1.70 1.74 1.69 1.93 1.87 1.90 1.84 1.61 1.43 1.27 1.18 1.19 1.27 1.37 1.45 1.52 1.64 1.70
2.18 2.16 2.05 1.98 1.85 1.78 1.83 1.90 1.81 1.92 1.95 1.95 1.95 1.99 2.02 2.13 2.27 2.26 2.30 2.34 2.57 2.85 2.72 2.51 2.33 2.14 2.02 1.91 1.77 1.76 1.74 1.68 1.51 1.37 1.17 1.08 1.10 1.13 1.18 1.26 1.36 1.46 1.54
1.86 1.87 1.82 1.82 1.81 1.87 1.95 1.88 1.81 1.82 1.88 1.84 1.90 2.00 1.90 2.05 2.21 2.16 2.26 2.28 2.45 2.76 2.85 2.95 2.93 2.63 2.34 2.18 2.09 1.92 1.59 1.48 1.52 1.44 1.27 1.14 1.08 1.07 1.06 1.08 1.16 1.30 1.41
1.83 1.80 1.78 1.76 1.75 1.91 2.06 2.01 1.96 2.00 2.02 1.90 1.97 1.98 1.84 1.94 2.00 2.01 2.10 2.19 2.37 2.56 2.78 2.78 2.82 2.68 2.50 2.26 2.36 2.09 1.80 1.73 1.41 1.37 1.30 1.14 1.07 1.04 1.02 1.04 1.10 1.15 1.23
1.89 1.93 1.90 1.84 1.84 1.79 1.84 1.98 2.09 2.09 2.06 1.97 1.94 1.85 1.71 1.70 1.77 1.91 1.90 2.04 2.25 2.44 2.59 2.55 2.60 2.66 2.70 2.69 2.72 2.51 2.32 2.07 1.71 1.34 1.35 1.20 1.16 1.07 0.97 0.93 0.96 1.03 1.15
1.77 1.95 1.95 1.92 1.89 1.81 1.72 1.80 1.92 1.87 1.92 1.88 1.81 1.63 1.41 1.42 1.51 1.59 1.56 1.87 2.12 2.22 2.32 2.38 2.46 2.65 2.77 2.98 2.80 2.68 2.58 2.48 2.16 1.83 1.77 1.44 1.32 1.15 1.00 0.96 0.96 0.96 1.02
1.84 1.88 1.86 1.87 1.80 1.55 1.60 1.57 1.54 1.58 1.64 1.66 1.69 1.65 1.46 1.31 1.24 1.28 1.27 1.44 1.74 1.89 2.06 2.31 2.44 2.63 2.72 2.76 2.94 2.91 2.85 2.69 2.44 2.16 2.13 2.05 1.87 1.72 1.42 1.14 1.10 0.99 0.92
1.80 1.72 1.65 1.67 1.66 1.58 1.45 1.29 1.25 1.36 1.51 1.56 1.59 1.60 1.37 1.24 1.28 1.16 1.22 1.29 1.33 1.42 1.57 1.93 2.20 2.29 2.33 2.40 2.69 2.82 2.83 2.71 2.62 2.46 2.48 2.47 2.31 2.04 1.61 1.40 1.34 1.14 1.04
1.65 1.68 1.59 1.58 1.69 1.57 1.46 1.22 1.09 1.07 1.27 1.34 1.34 1.35 1.36 1.35 1.27 1.29 1.25 1.26 1.20 1.22 1.29 1.34 1.49 1.67 1.92 2.13 2.35 2.59 2.85 2.81 2.75 2.68 2.65 2.72 2.53 2.37 1.99 1.67 1.51 1.26 1.16
1.62 1.63 1.62 1.64 1.65 1.59 1.49 1.26 1.15 1.17 1.31 1.35 1.37 1.38 1.43 1.48 1.46 1.29 1.23 1.27 1.29 1.34 1.29 1.32 1.27 1.33 1.46 1.59 1.77 2.05 2.37 2.69 2.91 2.90 2.68 2.74 2.65 2.66 2.59 2.18 1.75 1.49 1.23
1.63 1.64 1.70 1.68 1.60 1.56 1.42 1.22 1.19 1.24 1.43 1.54 1.66 1.66 1.54 1.39 1.36 1.23 1.23 1.33 1.30 1.31 1.24 1.23 1.19 1.17 1.17 1.30 1.45 1.63 1.89 2.24 2.51 2.66 2.58 2.70 2.85 3.15 3.29 2.80 2.19 1.74 1.50

GEFSMA_prec_meanprecacc_264.txt.gz
Total_Precipitation_Accumulation
3.04 2.98 2.87 2.86 2.63 2.78 2.97 3.32 3.21 3.38 3.33 2.94 2.52 2.39 2.41 2.47 2.38 2.50 2.78 2.78 2.62 2.70 3.47 3.91 3.75 3.40 2.92 2.44 2.16 2.01 1.94 1.75 1.54 1.28 1.20 1.32 1.35 1.35 1.23 1.02 0.91 0.78 0.63
3.34 3.30 3.14 3.11 2.86 2.80 3.09 3.41 3.40 3.88 3.75 3.56 3.04 2.74 2.58 2.54 2.52 2.65 2.96 3.13 3.05 3.02 3.46 4.00 4.21 4.10 3.65 3.06 2.58 2.28 2.23 2.14 1.90 1.48 1.30 1.43 1.52 1.46 1.41 1.24 1.02 0.87 0.69
3.45 3.35 3.30 3.16 3.13 3.11 3.31 3.40 3.54 3.93 3.69 3.60 3.41 3.11 2.90 2.68 2.54 2.76 3.15 3.48 3.13 3.06 3.42 3.91 4.32 4.28 4.10 3.77 3.23 2.81 2.48 2.25 2.08 1.75 1.45 1.34 1.41 1.39 1.33 1.27 1.11 0.88 0.66
3.44 3.55 3.32 3.11 3.26 3.28 3.50 3.79 3.79 3.88 3.99 3.90 3.71 3.39 3.24 3.12 2.65 2.72 2.90 3.08 3.28 2.85 3.27 3.90 4.17 3.93 3.96 4.14 4.06 3.76 3.27 2.67 2.36 2.03 1.72 1.55 1.51 1.42 1.28 1.21 1.11 0.93 0.67
3.23 3.60 3.45 3.45 3.48 3.70 3.64 3.34 3.89 4.09 4.10 4.01 3.48 3.41 3.05 3.01 2.90 2.67 2.79 2.85 3.06 3.01 3.07 3.19 3.74 3.55 3.74 4.25 4.56 4.67 4.35 3.71 3.01 2.53 2.17 1.92 1.82 1.60 1.36 1.21 1.09 0.88 0.69
3.16 3.49 3.31 3.32 3.55 3.94 4.05 3.95 4.19 4.12 4.00 4.06 3.41 3.22 2.90 2.61 2.62 2.56 2.38 2.63 2.72 2.43 2.60 2.84 3.26 2.79 3.01 3.49 4.01 4.61 4.90 4.79 4.08 3.30 2.92 2.66 2.49 2.06 1.54 1.26 1.09 0.94 0.76
3.09 3.48 3.17 3.60 3.65 3.85 4.04 4.03 4.26 4.19 3.96 4.06 4.00 3.45 2.83 2.43 2.35 2.20 2.20 2.40 2.32 2.37 2.67 3.09 3.35 3.27 2.91 2.83 3.09 3.75 4.66 5.21 4.97 4.26 3.82 3.52 3.26 2.75 1.97 1.52 1.20 0.98 0.85
2.94 3.07 3.60 3.57 3.67 3.87 3.93 3.91 4.01 3.83 3.55 3.89 4.14 3.95 3.23 2.80 2.38 1.94 2.14 2.16 2.28 2.52 2.56 2.63 3.07 3.42 3.27 3.28 2.82 2.80 3.89 4.98 5.46 5.24 4.87 4.46 4.02 3.23 2.49 1.98 1.51 1.16 1.00
3.05 3.19 3.45 3.54 3.60 3.48 3.71 3.90 3.71 3.67 3.55 3.62 3.87 4.05 3.54 2.96 2.48 2.13 1.99 2.02 2.37 2.62 2.50 2.45 2.45 2.70 2.80 3.26 3.42 2.91 3.05 3.48 4.29 5.32 5.68 5.48 4.66 3.50 2.74 2.33 1.99 1.53 1.18
2.86 2.98 3.13 3.33 3.47 3.38 3.53 3.43 3.46 3.60 3.60 3.44 3.59 3.54 3.41 3.18 2.99 2.57 2.17 2.03 2.23 2.35 2.33 2.13 2.16 2.49 2.68 3.14 3.31 2.74 2.41 2.35 2.70 3.85 4.97 5.20 4.72 3.69 2.94 2.68 2.62 2.26 1.65
2.71 2.68 2.89 3.13 3.27 3.16 3.11 3.31 3.59 3.51 3.37 3.32 3.46 3.49 3.64 3.48 3.16 2.97 2.61 2.34 2.17 1.92 2.00 2.03 2.04 2.16 2.41 2.81 3.02 2.48 2.31 2.09 2.00 2.38 3.16 3.77 3.99 3.67 3.19 3.08 3.30 3.27 2.79
2.66 2.59 2.68 3.00 3.10 3.03 2.98 3.07 3.14 3.17 3.18 3.33 3.34 3.24 3.42 3.42 3.30 3.31 2.93 2.57 2.28 1.84 1.75 1.80 1.90 2.03 2.17 2.38 2.14 2.02 2.11 1.93 1.79 1.79 2.05 2.50 2.95 3.18 3.11 3.22 3.52 3.75 3.75
2.58 2.56 2.55 2.70 2.64 2.62 2.71 2.93 2.94 2.87 2.92 3.04 3.01 3.03 2.99 2.89 2.97 3.09 3.04 2.64 2.31 1.83 1.79 1.69 1.70 1.87 1.78 2.10 2.17 2.04 1.92 1.80 1.68 1.66 1.71 1.80 2.06 2.34 2.62 2.86 3.28 3.71 3.95
2.50 2.44 2.37 2.33 2.27 2.29 2.35 2.66 2.76 2.69 2.76 2.76 2.68 2.89 2.72 2.55 2.71 2.76 2.84 2.94 2.70 2.38 2.30 2.06 1.69 1.65 1.79 1.98 2.07 2.00 1.76 1.74 1.58 1.53 1.52 1.52 1.62 1.77 1.94 2.20 2.51 2.76 3.04
2.16 2.20 2.18 2.10 2.04 2.13 2.25 2.35 2.36 2.35 2.47 2.43 2.50 2.55 2.38 2.37 2.46 2.49 2.66 2.91 2.97 2.79 2.68 2.46 1.99 1.71 1.77 1.97 2.18 1.95 1.88 1.74 1.58 1.48 1.39 1.37 1.39 1.46 1.54 1.67 1.87 2.06 2.16
2.17 2.08 2.01 1.93 1.93 1.96 2.01 2.13 2.10 2.15 2.16 2.15 2.33 2.39 2.34 2.30 2.42 2.38 2.45 2.65 2.84 2.90 2.70 2.41 2.15 1.81 1.83 1.76 1.98 1.96 1.96 1.88 1.64 1.47 1.31 1.21 1.22 1.30 1.40 1.47 1.54 1.67 1.72
2.23 2.19 2.10 2.04 1.91 1.84 1.89 1.96 1.86 1.98 2.01 2.03 2.02 2.08 2.11 2.22 2.36 2.35 2.41 2.44 2.67 2.95 2.84 2.64 2.43 2.23 2.09 1.98 1.83 1.82 1.78 1.71 1.53 1.39 1.19 1.10 1.11 1.15 1.20 1.28 1.37 1.48 1.56
1.90 1.91 1.87 1.87 1.87 1.93 2.01 1.93 1.86 1.87 1.94 1.91 1.97 2.11 2.02 2.17 2.32 2.26 2.36 2.37 2.53 2.84 2.94 3.06 3.03 2.71 2.40 2.23 2.13 1.97 1.63 1.50 1.54 1.47 1.30 1.15 1.09 1.08 1.07 1.09 1.18 1.31 1.43
1.86 1.83 1.82 1.80 1.81 1.98 2.12 2.07 2.03 2.08 2.09 1.97 2.05 2.09 1.97 2.07 2.13 2.12 2.19 2.26 2.42 2.62 2.85 2.86 2.90 2.77 2.58 2.30 2.39 2.13 1.83 1.78 1.45 1.40 1.34 1.17 1.09 1.06 1.04 1.07 1.12 1.16 1.24
1.91 1.96 1.94 1.89 1.91 1.86 1.90 2.05 2.18 2.18 2.14 2.04 2.02 1.92 1.79 1.78 1.86 2.00 2.00 2.14 2.34 2.53 2.69 2.65 2.70 2.76 2.77 2.73 2.75 2.55 2.37 2.12 1.76 1.38 1.39 1.24 1.19 1.10 0.99 0.95 0.98 1.05 1.16
1.80 1.98 2.00 1.97 1.96 1.88 1.78 1.87 1.98 1.92 1.96 1.93 1.86 1.69 1.49 1.50 1.59 1.65 1.62 1.95 2.22 2.34 2.42 2.48 2.56 2.73 2.84 3.03 2.84 2.72 2.62 2.53 2.23 1.87 1.81 1.47 1.34 1.16 1.01 0.97 0.96 0.96 1.02
1.88 1.92 1.89 1.91 1.84 1.58 1.64 1.60 1.57 1.62 1.69 1.72 1.76 1.72 1.53 1.38 1.31 1.33 1.32 1.48 1.79 1.94 2.11 2.37 2.51 2.70 2.78 2.82 2.99 2.96 2.89 2.73 2.49 2.19 2.17 2.10 1.92 1.74 1.44 1.14 1.10 0.99 0.92
1.83 1.75 1.68 1.69 1.68 1.61 1.48 1.31 1.27 1.39 1.56 1.63 1.66 1.67 1.42 1.28 1.33 1.21 1.26 1.32 1.37 1.46 1.61 1.97 2.25 2.35 2.40 2.45 2.73 2.86 2.87 2.75 2.67 2.51 2.54 2.53 2.36 2.08 1.64 1.41 1.35 1.14 1.05
1.68 1.71 1.62 1.61 1.71 1.61 1.49 1.25 1.14 1.13 1.33 1.40 1.39 1.39 1.40 1.39 1.31 1.33 1.31 1.32 1.24 1.25 1.32 1.37 1.52 1.71 1.96 2.18 2.39 2.63 2.91 2.87 2.82 2.75 2.72 2.78 2.58 2.42 2.04 1.71 1.53 1.28 1.18
1.66 1.66 1.65 1.67 1.68 1.63 1.54 1.31 1.21 1.22 1.35 1.38 1.40 1.40 1.47 1.53 1.51 1.34 1.29 1.34 1.35 1.38 1.34 1.36 1.30 1.36 1.49 1.61 1.80 2.09 2.43 2.77 2.98 2.96 2.75 2.81 2.72 2.74 2.67 2.25 1.80 1.53 1.26
1.67 1.68 1.74 1.72 1.63 1.59 1.44 1.24 1.21 1.26 1.46 1.56 1.68 1.68 1.57 1.44 1.41 1.27 1.28 1.39 1.36 1.37 1.30 1.27 1.23 1.20 1.20 1.33 1.48 1.67 1.95 2.32 2.61 2.75 2.66 2.77 2.91 3.23 3.38 2.88 2.25 1.80 1.55

GEFSMA_prec_meanprecacc_270.txt.gz
Total_Precipitation_Accumulation
3.13 3.08 2.98 2.96 2.70 2.83 3.02 3.38 3.26 3.45 3.42 3.02 2.58 2.43 2.46 2.53 2.46 2.56 2.84 2.84 2.67 2.75 3.53 3.98 3.82 3.47 2.98 2.48 2.20 2.05 1.97 1.77 1.56 1.32 1.24 1.35 1.38 1.37 1.26 1.05 0.93 0.80 0.64
3.42 3.39 3.24 3.19 2.91 2.85 3.14 3.46 3.45 3.94 3.82 3.64 3.11 2.79 2.64 2.61 2.59 2.71 3.01 3.18 3.11 3.06 3.52 4.08 4.29 4.17 3.71 3.11 2.64 2.34 2.27 2.18 1.93 1.51 1.34 1.45 1.54 1.48 1.43 1.27 1.05 0.89 0.71
3.55 3.44 3.38 3.23 3.18 3.16 3.35 3.44 3.57 3.98 3.73 3.67 3.49 3.18 2.95 2.74 2.60 2.82 3.21 3.52 3.17 3.10 3.48 3.97 4.38 4.35 4.16 3.82 3.27 2.86 2.53 2.30 2.12 1.79 1.49 1.37 1.43 1.41 1.36 1.31 1.14 0.92 0.70
3.57 3.64 3.40 3.18 3.32 3.32 3.54 3.84 3.84 3.93 4.04 3.96 3.75 3.42 3.28 3.16 2.71 2.77 2.95 3.12 3.33 2.89 3.31 3.96 4.25 4.00 4.02 4.19 4.11 3.82 3.32 2.72 2.41 2.09 1.76 1.59 1.54 1.46 1.33 1.26 1.15 0.96 0.71
3.36 3.69 3.51 3.51 3.53 3.73 3.67 3.38 3.95 4.15 4.14 4.05 3.50 3.43 3.07 3.04 2.95 2.71 2.82 2.89 3.10 3.06 3.12 3.27 3.84 3.64 3.83 4.33 4.63 4.74 4.42 3.78 3.07 2.59 2.24 1.97 1.87 1.64 1.42 1.28 1.15 0.94 0.73
3.25 3.57 3.37 3.39 3.61 3.99 4.09 3.99 4.24 4.17 4.03 4.10 3.44 3.24 2.93 2.64 2.65 2.59 2.42 2.68 2.76 2.49 2.69 2.93 3.33 2.84 3.08 3.56 4.07 4.66 4.97 4.88 4.17 3.38 3.01 2.75 2.57 2.12 1.61 1.34 1.15 0.99 0.82
3.14 3.52 3.21 3.64 3.72 3.92 4.09 4.06 4.29 4.23 4.01 4.13 4.08 3.51 2.89 2.49 2.41 2.25 2.26 2.47 2.40 2.46 2.77 3.21 3.46 3.35 2.96 2.90 3.14 3.81 4.72 5.28 5.06 4.34 3.90 3.60 3.36 2.86 2.09 1.63 1.26 1.02 0.90
2.96 3.08 3.61 3.60 3.72 3.93 3.99 3.96 4.05 3.86 3.59 3.94 4.23 4.06 3.34 2.88 2.46 2.03 2.25 2.26 2.40 2.68 2.69 2.75 3.17 3.53 3.33 3.34 2.88 2.84 3.95 5.05 5.53 5.31 4.94 4.54 4.12 3.35 2.59 2.08 1.59 1.23 1.05
3.06 3.20 3.47 3.56 3.63 3.53 3.76 3.95 3.76 3.72 3.61 3.66 3.91 4.13 3.64 3.05 2.55 2.23 2.10 2.14 2.50 2.75 2.62 2.57 2.54 2.79 2.87 3.32 3.47 2.94 3.09 3.53 4.37 5.41 5.79 5.58 4.77 3.60 2.82 2.40 2.05 1.60 1.25
2.88 2.99 3.15 3.34 3.50 3.42 3.58 3.45 3.49 3.64 3.65 3.49 3.64 3.59 3.48 3.28 3.10 2.66 2.25 2.13 2.35 2.46 2.43 2.23 2.25 2.58 2.75 3.21 3.38 2.79 2.46 2.40 2.76 3.92 5.06 5.29 4.81 3.79 3.07 2.81 2.74 2.37 1.76
2.72 2.69 2.91 3.15 3.30 3.19 3.14 3.34 3.62 3.55 3.43 3.39 3.52 3.57 3.74 3.57 3.24 3.07 2.68 2.43 2.27 2.02 2.10 2.14 2.14 2.26 2.49 2.88 3.08 2.54 2.37 2.15 2.06 2.44 3.23 3.84 4.06 3.75 3.29 3.18 3.42 3.41 2.94
2.66 2.60 2.69 3.02 3.12 3.06 3.01 3.10 3.18 3.21 3.23 3.39 3.39 3.30 3.51 3.53 3.36 3.38 3.00 2.65 2.36 1.91 1.85 1.93 2.04 2.17 2.30 2.47 2.21 2.09 2.19 2.03 1.88 1.88 2.15 2.60 3.06 3.28 3.19 3.29 3.60 3.85 3.86
2.59 2.57 2.56 2.72 2.65 2.64 2.74 2.96 2.97 2.91 2.95 3.08 3.05 3.07 3.04 2.95 3.03 3.15 3.11 2.70 2.36 1.88 1.86 1.79 1.80 1.99 1.95 2.23 2.27 2.13 2.00 1.87 1.74 1.72 1.79 1.90 2.18 2.44 2.69 2.91 3.33 3.76 4.00
2.52 2.47 2.40 2.35 2.29 2.31 2.37 2.68 2.78 2.72 2.79 2.79 2.71 2.94 2.77 2.61 2.78 2.81 2.90 3.02 2.75 2.43 2.36 2.15 1.79 1.76 1.91 2.09 2.18 2.10 1.83 1.81 1.64 1.58 1.58 1.60 1.70 1.83 1.98 2.24 2.54 2.80 3.09
2.17 2.23 2.21 2.12 2.08 2.17 2.28 2.38 2.39 2.38 2.49 2.47 2.54 2.60 2.42 2.44 2.53 2.56 2.73 2.98 3.03 2.83 2.74 2.55 2.12 1.85 1.88 2.06 2.28 2.03 1.93 1.79 1.63 1.53 1.45 1.42 1.43 1.49 1.57 1.69 1.89 2.08 2.19
2.19 2.10 2.04 1.96 1.96 1.99 2.04 2.17 2.14 2.19 2.19 2.18 2.37 2.43 2.38 2.36 2.49 2.45 2.51 2.73 2.92 2.97 2.80 2.54 2.27 1.95 1.96 1.85 2.06 2.02 2.01 1.93 1.69 1.51 1.35 1.25 1.25 1.32 1.41 1.48 1.55 1.67 1.73
2.25 2.22 2.14 2.08 1.94 1.86 1.92 2.00 1.90 2.01 2.04 2.05 2.04 2.11 2.14 2.27 2.42 2.41 2.46 2.51 2.74 3.03 2.94 2.75 2.53 2.32 2.18 2.07 1.92 1.89 1.83 1.75 1.57 1.44 1.24 1.14 1.14 1.16 1.21 1.28 1.38 1.48 1.56
1.92 1.93 1.89 1.89 1.89 1.95 2.03 1.96 1.89 1.91 1.99 1.95 2.02 2.15 2.06 2.22 2.37 2.32 2.42 2.43 2.60 2.93 3.04 3.15 3.12 2.80 2.48 2.30 2.22 2.05 1.70 1.55 1.58 1.51 1.35 1.19 1.11 1.09 1.08 1.10 1.19 1.32 1.44
1.88 1.85 1.84 1.82 1.83 2.00 2.13 2.10 2.06 2.12 2.14 2.02 2.09 2.13 2.01 2.13 2.20 2.20 2.26 2.33 2.50 2.72 2.95 2.93 2.97 2.83 2.65 2.38 2.46 2.20 1.91 1.84 1.50 1.45 1.38 1.21 1.13 1.08 1.05 1.08 1.13 1.17 1.25
1.93 1.99 1.97 1.91 1.93 1.88 1.92 2.07 2.19 2.19 2.16 2.07 2.05 1.96 1.83 1.83 1.92 2.06 2.06 2.19 2.40 2.59 2.77 2.72 2.76 2.82 2.85 2.82 2.83 2.61 2.42 2.18 1.82 1.45 1.47 1.30 1.23 1.13 1.02 0.97 0.99 1.06 1.18
1.82 2.01 2.03 2.00 1.98 1.90 1.79 1.89 2.00 1.93 1.98 1.96 1.90 1.73 1.53 1.55 1.63 1.69 1.66 1.98 2.27 2.40 2.49 2.54 2.62 2.79 2.91 3.11 2.92 2.78 2.67 2.58 2.27 1.92 1.87 1.54 1.40 1.20 1.04 0.99 0.99 0.98 1.04
1.90 1.95 1.93 1.95 1.87 1.60 1.66 1.63 1.60 1.63 1.71 1.75 1.78 1.75 1.57 1.43 1.36 1.38 1.36 1.51 1.82 1.98 2.17 2.43 2.56 2.76 2.85 2.89 3.05 3.01 2.94 2.78 2.52 2.23 2.23 2.16 1.99 1.81 1.49 1.18 1.13 1.02 0.95
1.87 1.78 1.72 1.74 1.72 1.65 1.51 1.33 1.30 1.41 1.58 1.65 1.69 1.71 1.46 1.31 1.36 1.23 1.30 1.37 1.40 1.49 1.65 2.02 2.30 2.40 2.45 2.50 2.78 2.90 2.90 2.78 2.70 2.54 2.58 2.57 2.41 2.15 1.70 1.45 1.38 1.17 1.06
1.72 1.75 1.66 1.66 1.76 1.66 1.54 1.29 1.18 1.16 1.36 1.42 1.40 1.41 1.42 1.40 1.32 1.36 1.35 1.36 1.28 1.29 1.36 1.40 1.55 1.74 2.01 2.24 2.43 2.67 2.94 2.90 2.85 2.78 2.75 2.81 2.62 2.47 2.10 1.78 1.60 1.33 1.21
1.69 1.71 1.70 1.73 1.74 1.69 1.60 1.37 1.25 1.24 1.37 1.40 1.42 1.41 1.48 1.54 1.52 1.37 1.32 1.37 1.39 1.42 1.38 1.40 1.35 1.41 1.54 1.66 1.83 2.12 2.45 2.79 3.00 2.98 2.78 2.85 2.76 2.79 2.74 2.33 1.87 1.61 1.32
1.72 1.74 1.79 1.77 1.69 1.65 1.52 1.30 1.25 1.29 1.48 1.58 1.70 1.69 1.57 1.45 1.43 1.29 1.29 1.40 1.38 1.39 1.33 1.31 1.27 1.24 1.23 1.35 1.51 1.69 1.96 2.33 2.63 2.78 2.69 2.81 2.96 3.28 3.44 2.94 2.32 1.87 1.63

GEFSMA_prec_meanprecacc_276.txt.gz
Total_Precipitation_Accumulation
3.19 3.16 3.07 3.06 2.77 2.87 3.05 3.42 3.32 3.50 3.46 3.06 2.62 2.46 2.49 2.56 2.49 2.58 2.87 2.88 2.71 2.80 3.60 4.06 3.91 3.56 3.07 2.56 2.28 2.13 2.04 1.83 1.61 1.35 1.27 1.39 1.41 1.40 1.30 1.10 0.96 0.82 0.66
3.51 3.50 3.39 3.32 2.99 2.89 3.18 3.52 3.51 3.99 3.87 3.69 3.15 2.83 2.67 2.65 2.62 2.74 3.04 3.22 3.15 3.12 3.59 4.17 4.39 4.28 3.83 3.24 2.74 2.42 2.34 2.26 2.00 1.57 1.39 1.50 1.57 1.51 1.47 1.30 1.08 0.92 0.72
3.68 3.57 3.50 3.33 3.26 3.22 3.40 3.48 3.60 4.01 3.76 3.70 3.53 3.21 3.00 2.80 2.66 2.88 3.25 3.57 3.22 3.16 3.54 4.04 4.46 4.45 4.26 3.93 3.37 2.95 2.62 2.40 2.22 1.88 1.57 1.43 1.48 1.46 1.41 1.35 1.19 0.96 0.72
3.71 3.76 3.50 3.26 3.39 3.38 3.59 3.88 3.87 3.95 4.06 3.98 3.78 3.46 3.32 3.21 2.78 2.82 2.98 3.16 3.38 2.94 3.35 4.03 4.34 4.09 4.12 4.29 4.22 3.93 3.42 2.82 2.52 2.20 1.87 1.67 1.61 1.52 1.39 1.32 1.22 1.02 0.75
3.51 3.81 3.61 3.58 3.58 3.79 3.71 3.42 3.97 4.17 4.16 4.06 3.52 3.47 3.11 3.07 2.99 2.74 2.85 2.93 3.15 3.11 3.17 3.33 3.95 3.76 3.96 4.47 4.75 4.84 4.52 3.87 3.16 2.69 2.35 2.09 1.97 1.72 1.49 1.35 1.22 1.01 0.78
3.39 3.68 3.46 3.44 3.66 4.04 4.13 4.03 4.27 4.20 4.05 4.11 3.46 3.26 2.95 2.67 2.68 2.63 2.45 2.72 2.81 2.55 2.76 3.00 3.41 2.94 3.19 3.67 4.18 4.76 5.07 4.99 4.27 3.48 3.10 2.84 2.67 2.22 1.72 1.45 1.24 1.07 0.89
3.22 3.59 3.28 3.69 3.77 3.97 4.13 4.10 4.32 4.25 4.03 4.16 4.10 3.52 2.90 2.51 2.45 2.28 2.29 2.50 2.43 2.50 2.83 3.27 3.53 3.42 3.02 2.96 3.21 3.89 4.81 5.38 5.14 4.41 3.95 3.66 3.42 2.93 2.19 1.76 1.38 1.12 0.98
2.99 3.12 3.66 3.64 3.78 3.99 4.03 4.00 4.08 3.88 3.62 3.97 4.25 4.08 3.37 2.93 2.51 2.06 2.28 2.29 2.43 2.72 2.75 2.80 3.23 3.58 3.38 3.39 2.92 2.89 4.01 5.13 5.62 5.38 5.01 4.61 4.19 3.42 2.69 2.20 1.70 1.32 1.15
3.10 3.23 3.49 3.58 3.66 3.56 3.80 3.99 3.80 3.74 3.63 3.69 3.94 4.15 3.66 3.08 2.61 2.30 2.16 2.19 2.55 2.81 2.67 2.61 2.57 2.83 2.91 3.36 3.51 2.98 3.14 3.58 4.42 5.48 5.87 5.66 4.84 3.69 2.95 2.51 2.13 1.67 1.32
2.89 3.01 3.17 3.36 3.52 3.45 3.61 3.49 3.52 3.66 3.68 3.52 3.68 3.63 3.51 3.30 3.14 2.72 2.32 2.19 2.39 2.49 2.47 2.28 2.29 2.61 2.79 3.27 3.43 2.84 2.51 2.46 2.82 3.99 5.14 5.37 4.89 3.90 3.19 2.92 2.84 2.46 1.84
2.72 2.71 2.92 3.16 3.32 3.21 3.17 3.37 3.66 3.59 3.48 3.44 3.57 3.62 3.79 3.61 3.28 3.12 2.74 2.48 2.32 2.07 2.15 2.19 2.19 2.31 2.56 2.96 3.14 2.58 2.43 2.22 2.13 2.52 3.30 3.91 4.16 3.86 3.40 3.30 3.53 3.52 3.04
2.67 2.60 2.70 3.03 3.14 3.07 3.02 3.12 3.21 3.25 3.28 3.44 3.44 3.35 3.57 3.59 3.43 3.46 3.06 2.71 2.43 1.98 1.90 2.00 2.11 2.24 2.38 2.57 2.31 2.17 2.26 2.08 1.94 1.95 2.22 2.68 3.16 3.39 3.30 3.40 3.71 3.97 3.98
2.60 2.58 2.57 2.72 2.66 2.65 2.75 2.97 3.00 2.93 2.98 3.11 3.08 3.11 3.10 3.02 3.12 3.24 3.19 2.76 2.40 1.92 1.90 1.83 1.86 2.07 2.04 2.34 2.39 2.25 2.09 1.96 1.82 1.79 1.87 1.97 2.25 2.54 2.81 3.05 3.47 3.88 4.12
2.55 2.50 2.43 2.37 2.30 2.33 2.39 2.71 2.81 2.75 2.82 2.82 2.75 2.98 2.83 2.68 2.85 2.88 2.97 3.07 2.80 2.46 2.39 2.18 1.83 1.83 2.00 2.19 2.29 2.22 1.95 1.94 1.76 1.69 1.68 1.68 1.78 1.93 2.11 2.37 2.66 2.89 3.17
2.19 2.25 2.24 2.16 2.10 2.20 2.33 2.43 2.43 2.43 2.54 2.51 2.58 2.65 2.48 2.49 2.60 2.64 2.80 3.04 3.09 2.87 2.76 2.58 2.16 1.91 1.96 2.15 2.41 2.15 2.05 1.93 1.75 1.64 1.55 1.51 1.52 1.57 1.64 1.76 1.96 2.13 2.24
2.19 2.12 2.06 1.98 1.98 2.02 2.08 2.21 2.17 2.23 2.23 2.22 2.40 2.46 2.42 2.39 2.53 2.50 2.55 2.76 2.96 3.01 2.82 2.57 2.32 2.01 2.04 1.95 2.17 2.11 2.09 2.01 1.78 1.59 1.43 1.34 1.33 1.38 1.47 1.53 1.60 1.72 1.76
2.27 2.24 2.16 2.10 1.96 1.89 1.95 2.02 1.92 2.04 2.06 2.07 2.06 2.12 2.15 2.29 2.44 2.42 2.48 2.54 2.78 3.07 2.97 2.77 2.56 2.38 2.26 2.17 2.01 1.96 1.89 1.79 1.61 1.48 1.28 1.18 1.19 1.23 1.27 1.34 1.42 1.52 1.59
1.93 1.95 1.91 1.90 1.90 1.97 2.06 1.97 1.91 1.93 2.01 1.97 2.03 2.18 2.08 2.23 2.39 2.34 2.45 2.46 2.63 2.95 3.07 3.19 3.17 2.87 2.58 2.38 2.29 2.11 1.76 1.61 1.62 1.55 1.38 1.23 1.15 1.14 1.13 1.15 1.23 1.36 1.47
1.89 1.86 1.85 1.83 1.85 2.03 2.16 2.11 2.08 2.14 2.17 2.05 2.12 2.15 2.03 2.15 2.22 2.23 2.30 2.36 2.53 2.75 2.99 2.97 3.03 2.92 2.77 2.49 2.57 2.30 2.00 1.93 1.58 1.52 1.44 1.27 1.19 1.15 1.12 1.14 1.18 1.22 1.29
1.95 2.00 1.98 1.92 1.94 1.90 1.94 2.09 2.21 2.21 2.17 2.08 2.07 1.98 1.85 1.85 1.94 2.09 2.09 2.22 2.43 2.63 2.80 2.76 2.81 2.90 2.96 2.95 2.95 2.72 2.53 2.29 1.94 1.56 1.57 1.40 1.33 1.22 1.11 1.06 1.07 1.13 1.23
1.84 2.03 2.05 2.01 2.00 1.91 1.81 1.91 2.02 1.95 1.99 1.97 1.91 1.74 1.54 1.56 1.65 1.72 1.67 1.99 2.29 2.43 2.51 2.58 2.66 2.84 2.97 3.18 3.01 2.88 2.77 2.69 2.39 2.01 1.95 1.61 1.48 1.28 1.12 1.08 1.08 1.07 1.10
1.92 1.98 1.95 1.97 1.89 1.63 1.69 1.65 1.62 1.65 1.71 1.75 1.79 1.75 1.59 1.45 1.38 1.41 1.38 1.54 1.85 2.01 2.20 2.46 2.60 2.80 2.89 2.93 3.11 3.10 3.05 2.88 2.61 2.30 2.29 2.22 2.06 1.89 1.58 1.28 1.20 1.08 1.01
1.89 1.81 1.75 1.77 1.74 1.67 1.54 1.36 1.32 1.43 1.59 1.66 1.70 1.71 1.47 1.33 1.37 1.25 1.32 1.39 1.43 1.52 1.67 2.04 2.32 2.42 2.47 2.55 2.85 2.97 2.96 2.84 2.77 2.61 2.64 2.63 2.48 2.23 1.81 1.58 1.48 1.23 1.12
1.74 1.77 1.68 1.68 1.78 1.68 1.57 1.31 1.20 1.18 1.38 1.44 1.42 1.42 1.43 1.42 1.34 1.38 1.37 1.37 1.29 1.30 1.37 1.41 1.57 1.78 2.07 2.30 2.49 2.72 2.98 2.93 2.88 2.80 2.77 2.84 2.66 2.52 2.15 1.85 1.69 1.43 1.30
1.70 1.72 1.72 1.75 1.76 1.70 1.63 1.39 1.28 1.27 1.40 1.43 1.45 1.45 1.51 1.56 1.55 1.40 1.34 1.38 1.40 1.43 1.40 1.42 1.36 1.43 1.57 1.70 1.86 2.14 2.48 2.81 3.03 3.01 2.82 2.89 2.83 2.86 2.80 2.40 1.95 1.70 1.41
1.73 1.75 1.80 1.78 1.70 1.66 1.53 1.32 1.29 1.32 1.51 1.61 1.73 1.72 1.60 1.48 1.45 1.32 1.30 1.40 1.38 1.39 1.35 1.32 1.28 1.25 1.24 1.37 1.52 1.70 1.97 2.35 2.64 2.80 2.72 2.85 3.01 3.34 3.50 3.00 2.39 1.95 1.70

GEFSMA_prec_meanprecacc_282.txt.gz
Total_Precipitation_Accumulation
3.25 3.24 3.15 3.13 2.83 2.93 3.13 3.50 3.40 3.60 3.56 3.15 2.70 2.53 2.54 2.59 2.53 2.62 2.90 2.92 2.74 2.84 3.65 4.12 3.99 3.64 3.15 2.65 2.36 2.20 2.12 1.92 1.69 1.42 1.32 1.43 1.45 1.44 1.34 1.15 1.01 0.85 0.68
3.57 3.57 3.47 3.39 3.03 2.92 3.24 3.60 3.60 4.11 3.99 3.80 3.25 2.91 2.73 2.71 2.67 2.77 3.07 3.27 3.19 3.16 3.64 4.23 4.47 4.39 3.93 3.33 2.82 2.50 2.44 2.36 2.11 1.67 1.48 1.57 1.62 1.55 1.50 1.35 1.13 0.96 0.75
3.76 3.65 3.58 3.41 3.32 3.26 3.45 3.55 3.67 4.08 3.83 3.78 3.61 3.30 3.08 2.86 2.71 2.93 3.30 3.62 3.26 3.19 3.58 4.09 4.52 4.52 4.34 4.02 3.47 3.05 2.72 2.50 2.32 1.98 1.66 1.51 1.54 1.50 1.45 1.39 1.23 0.99 0.75
3.79 3.86 3.59 3.36 3.48 3.45 3.64 3.95 3.94 4.02 4.14 4.07 3.85 3.53 3.37 3.27 2.82 2.87 3.03 3.21 3.44 2.98 3.40 4.08 4.38 4.16 4.23 4.43 4.36 4.06 3.54 2.92 2.62 2.29 1.96 1.73 1.66 1.57 1.44 1.36 1.26 1.05 0.78
3.59 3.89 3.72 3.70 3.67 3.88 3.80 3.48 4.04 4.23 4.24 4.15 3.59 3.54 3.16 3.12 3.04 2.80 2.92 2.99 3.22 3.17 3.24 3.39 3.99 3.83 4.08 4.63 4.91 4.97 4.63 3.97 3.26 2.79 2.43 2.16 2.01 1.76 1.53 1.40 1.26 1.03 0.81
3.50 3.79 3.58 3.56 3.75 4.15 4.24 4.10 4.33 4.26 4.11 4.18 3.50 3.31 3.00 2.71 2.73 2.70 2.53 2.76 2.85 2.58 2.81 3.06 3.49 2.99 3.25 3.77 4.29 4.89 5.20 5.12 4.40 3.59 3.21 2.95 2.74 2.28 1.78 1.50 1.29 1.11 0.92
3.34 3.73 3.41 3.78 3.85 4.07 4.22 4.16 4.38 4.30 4.08 4.20 4.15 3.57 2.94 2.54 2.47 2.30 2.32 2.53 2.46 2.52 2.86 3.31 3.60 3.48 3.08 3.02 3.29 3.98 4.91 5.47 5.23 4.50 4.05 3.78 3.54 3.02 2.25 1.82 1.45 1.18 1.04
3.12 3.23 3.76 3.72 3.84 4.06 4.12 4.07 4.14 3.93 3.66 4.02 4.31 4.14 3.41 2.96 2.52 2.08 2.31 2.33 2.46 2.75 2.78 2.82 3.27 3.64 3.43 3.45 2.98 2.95 4.08 5.19 5.68 5.44 5.08 4.70 4.29 3.53 2.76 2.25 1.75 1.38 1.22
3.17 3.29 3.55 3.64 3.71 3.61 3.86 4.06 3.87 3.81 3.69 3.74 3.99 4.21 3.73 3.13 2.64 2.32 2.20 2.25 2.61 2.86 2.71 2.65 2.62 2.89 2.97 3.43 3.58 3.03 3.20 3.66 4.49 5.55 5.93 5.73 4.91 3.78 3.04 2.61 2.24 1.77 1.41
2.93 3.04 3.20 3.40 3.56 3.48 3.66 3.54 3.59 3.75 3.77 3.59 3.73 3.67 3.57 3.36 3.19 2.76 2.36 2.26 2.49 2.59 2.56 2.35 2.35 2.67 2.84 3.32 3.49 2.88 2.56 2.52 2.89 4.07 5.21 5.44 4.95 3.97 3.26 3.04 2.95 2.53 1.91
2.76 2.74 2.95 3.20 3.36 3.25 3.22 3.42 3.72 3.66 3.56 3.52 3.64 3.67 3.84 3.67 3.34 3.17 2.78 2.54 2.40 2.16 2.24 2.27 2.25 2.36 2.60 3.00 3.19 2.65 2.49 2.27 2.19 2.58 3.36 3.97 4.23 3.94 3.49 3.40 3.63 3.59 3.13
2.70 2.63 2.73 3.07 3.17 3.10 3.07 3.17 3.26 3.30 3.34 3.52 3.52 3.42 3.63 3.66 3.50 3.52 3.12 2.77 2.49 2.04 1.96 2.05 2.16 2.29 2.42 2.60 2.35 2.22 2.33 2.15 1.99 2.00 2.27 2.73 3.21 3.45 3.36 3.46 3.79 4.06 4.05
2.62 2.61 2.60 2.75 2.68 2.68 2.78 3.01 3.04 2.99 3.05 3.18 3.15 3.18 3.17 3.09 3.20 3.34 3.28 2.83 2.45 1.96 1.94 1.86 1.89 2.11 2.09 2.38 2.44 2.29 2.15 2.03 1.89 1.86 1.93 2.03 2.32 2.61 2.90 3.14 3.54 3.97 4.20
2.57 2.52 2.45 2.40 2.32 2.34 2.40 2.74 2.84 2.79 2.87 2.89 2.81 3.06 2.91 2.76 2.93 2.95 3.03 3.13 2.85 2.51 2.43 2.21 1.85 1.86 2.05 2.24 2.34 2.26 1.99 2.01 1.86 1.79 1.79 1.80 1.90 2.03 2.22 2.47 2.75 3.00 3.28
2.20 2.27 2.26 2.18 2.12 2.22 2.36 2.47 2.48 2.48 2.60 2.58 2.65 2.72 2.54 2.55 2.65 2.68 2.84 3.10 3.16 2.93 2.80 2.61 2.19 1.94 2.00 2.19 2.45 2.21 2.10 1.99 1.84 1.74 1.65 1.61 1.62 1.67 1.73 1.85 2.04 2.22 2.33
2.21 2.13 2.07 1.99 1.99 2.05 2.12 2.26 2.21 2.27 2.29 2.28 2.44 2.50 2.45 2.43 2.57 2.53 2.57 2.79 3.00 3.06 2.86 2.60 2.35 2.03 2.08 1.99 2.21 2.16 2.15 2.08 1.85 1.67 1.51 1.42 1.42 1.49 1.58 1.63 1.68 1.79 1.83
2.28 2.25 2.17 2.11 1.97 1.91 1.98 2.07 1.95 2.06 2.09 2.09 2.08 2.15 2.18 2.33 2.48 2.45 2.50 2.56 2.82 3.11 3.00 2.80 2.59 2.40 2.29 2.22 2.07 2.03 1.95 1.85 1.67 1.55 1.36 1.27 1.27 1.31 1.36 1.42 1.51 1.61 1.67
1.94 1.95 1.92 1.91 1.91 1.99 2.08 2.00 1.93 1.95 2.03 2.00 2.07 2.21 2.11 2.26 2.42 2.36 2.47 2.49 2.66 2.98 3.10 3.22 3.20 2.90 2.62 2.44 2.38 2.20 1.82 1.66 1.67 1.61 1.45 1.31 1.24 1.23 1.22 1.24 1.33 1.46 1.56
1.91 1.87 1.86 1.85 1.87 2.04 2.17 2.13 2.10 2.16 2.19 2.07 2.15 2.18 2.06 2.18 2.25 2.25 2.32 2.38 2.56 2.77 3.01 3.00 3.06 2.96 2.81 2.54 2.63 2.37 2.07 1.99 1.63 1.58 1.52 1.35 1.27 1.23 1.19 1.21 1.26 1.30 1.37
1.97 2.02 1.99 1.93 1.95 1.91 1.95 2.09 2.22 2.23 2.19 2.10 2.09 2.00 1.88 1.87 1.96 2.11 2.11 2.24 2.46 2.66 2.83 2.78 2.84 2.94 3.01 3.00 3.01 2.77 2.58 2.34 1.99 1.61 1.62 1.44 1.36 1.26 1.15 1.10 1.12 1.19 1.29
1.90 2.08 2.07 2.02 2.02 1.92 1.82 1.92 2.03 1.97 2.01 1.98 1.93 1.75 1.55 1.58 1.66 1.73 1.69 2.02 2.33 2.46 2.54 2.61 2.70 2.89 3.03 3.24 3.06 2.92 2.81 2.74 2.44 2.05 1.99 1.65 1.51 1.31 1.15 1.11 1.12 1.13 1.19
2.01 2.04 1.98 1.99 1.91 1.64 1.70 1.67 1.63 1.66 1.73 1.76 1.80 1.77 1.60 1.47 1.40 1.42 1.40 1.56 1.89 2.05 2.23 2.50 2.64 2.84 2.94 2.97 3.15 3.13 3.08 2.92 2.65 2.35 2.34 2.26 2.09 1.93 1.64 1.33 1.24 1.11 1.05
1.95 1.85 1.78 1.79 1.76 1.69 1.55 1.37 1.33 1.44 1.60 1.67 1.71 1.73 1.48 1.34 1.39 1.26 1.33 1.41 1.44 1.53 1.69 2.06 2.34 2.45 2.50 2.58 2.89 3.00 2.99 2.88 2.80 2.65 2.69 2.67 2.52 2.27 1.86 1.65 1.54 1.28 1.16
1.81 1.82 1.71 1.71 1.79 1.69 1.59 1.34 1.23 1.20 1.39 1.45 1.43 1.44 1.45 1.44 1.36 1.41 1.39 1.39 1.30 1.31 1.38 1.42 1.58 1.80 2.09 2.34 2.53 2.75 3.01 2.97 2.91 2.83 2.81 2.88 2.71 2.56 2.20 1.90 1.74 1.49 1.39
1.76 1.76 1.75 1.78 1.78 1.72 1.66 1.42 1.31 1.29 1.41 1.44 1.46 1.46 1.53 1.59 1.58 1.44 1.38 1.40 1.41 1.44 1.40 1.42 1.37 1.44 1.59 1.72 1.89 2.16 2.50 2.83 3.05 3.03 2.84 2.93 2.87 2.90 2.83 2.44 2.00 1.75 1.49
1.75 1.77 1.83 1.81 1.73 1.68 1.55 1.34 1.31 1.34 1.52 1.63 1.75 1.74 1.63 1.50 1.48 1.36 1.36 1.45 1.42 1.41 1.36 1.33 1.29 1.25 1.25 1.39 1.54 1.71 1.99 2.36 2.66 2.82 2.75 2.88 3.05 3.38 3.53 3.03 2.43 1.99 1.75

GEFSMA_prec_meanprecacc_288.txt.gz
Total_Precipitation_Accumulation
3.32 3.35 3.29 3.28 2.97 3.04 3.27 3.63 3.50 3.70 3.67 3.24 2.77 2.61 2.59 2.61 2.55 2.65 2.95 2.97 2.77 2.86 3.67 4.16 4.03 3.69 3.22 2.72 2.43 2.26 2.18 1.97 1.74 1.50 1.41 1.52 1.52 1.49 1.38 1.17 1.04 0.89 0.72
3.65 3.67 3.59 3.52 3.15 3.04 3.36 3.70 3.70 4.23 4.11 3.90 3.35 2.99 2.79 2.75 2.71 2.80 3.14 3.34 3.24 3.20 3.68 4.28 4.53 4.46 4.00 3.41 2.90 2.58 2.51 2.41 2.16 1.74 1.56 1.65 1.69 1.60 1.54 1.38 1.16 0.99 0.79
3.85 3.73 3.68 3.51 3.43 3.36 3.53 3.63 3.76 4.19 3.95 3.89 3.75 3.40 3.18 2.95 2.77 2.99 3.37 3.73 3.35 3.26 3.64 4.16 4.60 4.60 4.42 4.11 3.55 3.13 2.79 2.56 2.38 2.04 1.72 1.58 1.61 1.56 1.50 1.42 1.26 1.03 0.78
3.87 3.94 3.68 3.47 3.56 3.51 3.71 4.04 4.05 4.15 4.28 4.20 3.97 3.65 3.47 3.37 2.92 2.97 3.12 3.31 3.56 3.07 3.50 4.18 4.46 4.23 4.31 4.53 4.46 4.17 3.65 3.01 2.69 2.36 2.02 1.79 1.72 1.62 1.50 1.41 1.30 1.09 0.81
3.65 4.01 3.84 3.82 3.74 3.95 3.86 3.54 4.15 4.36 4.36 4.26 3.67 3.63 3.24 3.21 3.14 2.90 3.01 3.07 3.28 3.24 3.32 3.46 4.06 3.89 4.13 4.70 5.01 5.10 4.78 4.10 3.37 2.90 2.52 2.23 2.08 1.82 1.59 1.45 1.31 1.08 0.85
3.60 3.93 3.72 3.68 3.85 4.24 4.32 4.18 4.45 4.37 4.22 4.28 3.58 3.39 3.09 2.80 2.80 2.78 2.59 2.83 2.89 2.62 2.86 3.13 3.56 3.03 3.30 3.83 4.37 5.02 5.38 5.27 4.52 3.70 3.31 3.06 2.85 2.37 1.85 1.56 1.34 1.15 0.96
3.44 3.86 3.55 3.94 3.98 4.17 4.31 4.25 4.47 4.39 4.17 4.28 4.24 3.65 3.02 2.61 2.53 2.35 2.36 2.59 2.50 2.55 2.90 3.39 3.67 3.54 3.13 3.07 3.36 4.11 5.04 5.60 5.34 4.59 4.14 3.86 3.61 3.09 2.33 1.90 1.52 1.24 1.10
3.21 3.35 3.89 3.86 3.97 4.19 4.24 4.17 4.23 4.03 3.75 4.10 4.41 4.24 3.51 3.04 2.58 2.11 2.35 2.37 2.50 2.79 2.82 2.88 3.33 3.70 3.50 3.52 3.07 3.06 4.19 5.29 5.77 5.54 5.16 4.77 4.35 3.59 2.84 2.33 1.82 1.45 1.28
3.27 3.41 3.68 3.77 3.85 3.74 3.98 4.15 3.96 3.91 3.80 3.83 4.07 4.32 3.86 3.23 2.71 2.37 2.23 2.29 2.65 2.89 2.75 2.70 2.69 2.96 3.04 3.52 3.66 3.10 3.26 3.71 4.56 5.63 6.03 5.82 4.98 3.83 3.10 2.68 2.30 1.83 1.48
3.02 3.14 3.31 3.51 3.66 3.57 3.74 3.61 3.67 3.85 3.88 3.69 3.81 3.75 3.67 3.46 3.28 2.83 2.42 2.30 2.53 2.63 2.61 2.39 2.40 2.73 2.90 3.38 3.54 2.93 2.60 2.55 2.93 4.13 5.30 5.54 5.05 4.04 3.32 3.09 3.02 2.60 1.96
2.81 2.79 3.01 3.26 3.43 3.31 3.28 3.47 3.79 3.73 3.63 3.59 3.72 3.76 3.93 3.76 3.42 3.26 2.88 2.61 2.46 2.21 2.28 2.31 2.29 2.40 2.64 3.04 3.22 2.68 2.52 2.29 2.22 2.62 3.41 4.04 4.31 4.02 3.56 3.46 3.71 3.67 3.19
2.75 2.67 2.78 3.13 3.23 3.16 3.13 3.23 3.31 3.36 3.40 3.58 3.58 3.50 3.74 3.75 3.58 3.61 3.21 2.84 2.55 2.08 2.01 2.08 2.18 2.31 2.45 2.64 2.39 2.25 2.36 2.17 2.02 2.04 2.31 2.78 3.26 3.52 3.44 3.54 3.86 4.13 4.12
2.67 2.66 2.65 2.81 2.74 2.74 2.83 3.07 3.10 3.05 3.11 3.24 3.22 3.26 3.25 3.16 3.24 3.40 3.35 2.89 2.53 2.03 1.99 1.89 1.91 2.13 2.12 2.44 2.49 2.34 2.18 2.05 1.91 1.89 1.96 2.08 2.38 2.69 2.99 3.22 3.63 4.05 4.27
2.59 2.54 2.48 2.43 2.36 2.38 2.44 2.80 2.89 2.83 2.94 2.96 2.89 3.15 2.98 2.82 2.98 3.00 3.09 3.21 2.95 2.59 2.49 2.25 1.88 1.90 2.09 2.29 2.39 2.32 2.02 2.03 1.89 1.82 1.82 1.84 1.94 2.09 2.30 2.55 2.83 3.07 3.36
2.22 2.29 2.28 2.20 2.16 2.25 2.40 2.52 2.53 2.53 2.69 2.66 2.71 2.78 2.60 2.59 2.69 2.72 2.89 3.16 3.24 3.01 2.86 2.65 2.23 1.99 2.04 2.23 2.50 2.25 2.14 2.03 1.87 1.78 1.68 1.64 1.65 1.71 1.78 1.90 2.09 2.27 2.38
2.23 2.15 2.10 2.02 2.03 2.09 2.16 2.33 2.28 2.36 2.36 2.35 2.51 2.57 2.52 2.48 2.63 2.57 2.61 2.83 3.05 3.12 2.91 2.63 2.38 2.07 2.12 2.04 2.26 2.19 2.19 2.12 1.88 1.71 1.55 1.45 1.45 1.51 1.60 1.67 1.72 1.84 1.88
2.31 2.28 2.21 2.16 2.02 1.96 2.04 2.13 2.00 2.13 2.14 2.14 2.13 2.20 2.23 2.38 2.53 2.50 2.55 2.60 2.87 3.15 3.06 2.84 2.61 2.43 2.33 2.29 2.13 2.07 1.98 1.88 1.70 1.59 1.39 1.30 1.30 1.33 1.38 1.46 1.55 1.66 1.74
1.97 1.99 1.95 1.96 1.95 2.03 2.13 2.04 1.98 2.01 2.09 2.05 2.12 2.27 2.15 2.31 2.47 2.41 2.51 2.52 2.69 3.02 3.16 3.26 3.22 2.92 2.65 2.51 2.44 2.23 1.85 1.69 1.72 1.67 1.48 1.33 1.26 1.25 1.24 1.27 1.36 1.50 1.61
1.93 1.90 1.89 1.89 1.91 2.09 2.21 2.16 2.13 2.20 2.22 2.10 2.19 2.23 2.11 2.23 2.29 2.31 2.37 2.42 2.59 2.80 3.07 3.05 3.10 3.01 2.85 2.60 2.70 2.42 2.11 2.05 1.68 1.62 1.54 1.38 1.29 1.25 1.21 1.23 1.28 1.32 1.40
1.99 2.04 2.04 1.99 2.00 1.95 1.99 2.13 2.27 2.26 2.23 2.13 2.12 2.04 1.91 1.91 1.99 2.16 2.15 2.28 2.51 2.72 2.90 2.84 2.90 2.99 3.06 3.05 3.08 2.84 2.65 2.42 2.05 1.65 1.65 1.46 1.38 1.28 1.17 1.12 1.14 1.20 1.31
1.92 2.12 2.14 2.10 2.08 1.98 1.86 1.95 2.06 2.01 2.05 2.02 1.96 1.78 1.58 1.61 1.69 1.76 1.71 2.05 2.36 2.49 2.58 2.65 2.75 2.94 3.08 3.30 3.12 2.99 2.87 2.81 2.51 2.09 2.03 1.67 1.52 1.32 1.15 1.11 1.13 1.14 1.20
2.02 2.07 2.02 2.03 1.94 1.67 1.73 1.69 1.66 1.71 1.78 1.81 1.84 1.81 1.64 1.50 1.42 1.44 1.42 1.59 1.92 2.07 2.27 2.54 2.67 2.88 2.98 3.02 3.20 3.18 3.13 2.99 2.72 2.40 2.38 2.29 2.11 1.94 1.65 1.34 1.25 1.11 1.06
1.96 1.86 1.80 1.81 1.77 1.70 1.56 1.38 1.35 1.46 1.64 1.72 1.76 1.78 1.53 1.38 1.42 1.29 1.37 1.44 1.46 1.54 1.71 2.09 2.37 2.48 2.54 2.61 2.93 3.04 3.04 2.93 2.85 2.70 2.74 2.71 2.56 2.30 1.88 1.65 1.55 1.30 1.17
1.82 1.83 1.72 1.71 1.80 1.70 1.60 1.36 1.26 1.23 1.43 1.48 1.47 1.48 1.50 1.48 1.40 1.45 1.44 1.42 1.33 1.33 1.40 1.44 1.61 1.83 2.11 2.37 2.58 2.79 3.06 3.02 2.95 2.87 2.85 2.93 2.75 2.60 2.21 1.91 1.76 1.51 1.40
1.77 1.77 1.76 1.79 1.79 1.73 1.67 1.44 1.33 1.32 1.44 1.46 1.48 1.49 1.56 1.62 1.62 1.48 1.42 1.44 1.45 1.48 1.43 1.45 1.40 1.47 1.61 1.75 1.92 2.20 2.55 2.88 3.09 3.07 2.88 2.97 2.91 2.93 2.86 2.45 2.01 1.77 1.51
1.76 1.78 1.84 1.82 1.74 1.69 1.56 1.35 1.33 1.36 1.55 1.65 1.77 1.76 1.65 1.53 1.51 1.40 1.40 1.49 1.47 1.47 1.40 1.38 1.33 1.29 1.28 1.41 1.57 1.75 2.03 2.41 2.71 2.86 2.79 2.93 3.10 3.43 3.57 3.06 2.45 2.01 1.78

GEFSMA_prec_meanprecacc_294.txt.gz
Total_Precipitation_Accumulation
3.42 3.51 3.46 3.43 3.10 3.13 3.34 3.68 3.54 3.73 3.71 3.28 2.82 2.65 2.63 2.64 2.59 2.71 3.01 3.04 2.83 2.93 3.72 4.20 4.08 3.74 3.27 2.78 2.48 2.32 2.24 2.01 1.79 1.54 1.46 1.56 1.57 1.54 1.42 1.21 1.06 0.91 0.74
3.77 3.81 3.75 3.69 3.28 3.13 3.43 3.76 3.75 4.27 4.16 3.96 3.40 3.04 2.83 2.80 2.76 2.87 3.21 3.41 3.31 3.25 3.73 4.33 4.59 4.52 4.07 3.48 2.97 2.65 2.58 2.47 2.21 1.78 1.60 1.70 1.76 1.66 1.59 1.42 1.20 1.02 0.81
3.94 3.81 3.80 3.63 3.51 3.43 3.60 3.67 3.80 4.23 4.00 3.96 3.81 3.48 3.25 3.02 2.84 3.05 3.44 3.80 3.40 3.31 3.69 4.23 4.66 4.66 4.50 4.21 3.64 3.20 2.86 2.63 2.45 2.10 1.78 1.65 1.68 1.63 1.55 1.47 1.30 1.06 0.80
3.92 3.99 3.75 3.54 3.62 3.57 3.76 4.08 4.09 4.18 4.33 4.26 4.03 3.72 3.54 3.44 2.98 3.01 3.16 3.36 3.61 3.12 3.53 4.23 4.51 4.29 4.40 4.62 4.54 4.25 3.72 3.08 2.78 2.44 2.09 1.85 1.78 1.68 1.56 1.46 1.35 1.12 0.83
3.71 4.07 3.91 3.89 3.80 4.01 3.92 3.59 4.20 4.42 4.43 4.32 3.72 3.69 3.30 3.26 3.18 2.93 3.05 3.11 3.33 3.28 3.34 3.48 4.09 3.94 4.19 4.75 5.07 5.16 4.85 4.17 3.47 2.99 2.61 2.31 2.14 1.87 1.65 1.51 1.38 1.15 0.90
3.71 4.01 3.80 3.75 3.90 4.30 4.36 4.22 4.51 4.43 4.27 4.32 3.63 3.44 3.16 2.85 2.84 2.81 2.62 2.86 2.93 2.66 2.89 3.15 3.57 3.05 3.32 3.86 4.41 5.07 5.45 5.34 4.59 3.76 3.37 3.12 2.90 2.43 1.91 1.62 1.40 1.21 1.02
3.57 3.94 3.63 4.00 4.03 4.22 4.36 4.30 4.54 4.44 4.20 4.31 4.29 3.70 3.07 2.66 2.58 2.38 2.39 2.63 2.56 2.60 2.94 3.41 3.70 3.56 3.15 3.10 3.40 4.16 5.12 5.67 5.40 4.64 4.19 3.91 3.66 3.14 2.38 1.95 1.57 1.29 1.15
3.32 3.42 3.94 3.91 4.01 4.23 4.30 4.24 4.29 4.07 3.78 4.14 4.47 4.30 3.55 3.08 2.63 2.15 2.39 2.41 2.54 2.83 2.85 2.91 3.37 3.75 3.54 3.55 3.11 3.12 4.25 5.36 5.85 5.60 5.21 4.82 4.40 3.63 2.88 2.37 1.86 1.49 1.32
3.35 3.48 3.74 3.83 3.92 3.80 4.04 4.22 4.02 3.97 3.86 3.89 4.15 4.41 3.91 3.25 2.73 2.40 2.27 2.33 2.69 2.95 2.79 2.74 2.72 2.99 3.07 3.55 3.70 3.16 3.33 3.77 4.61 5.69 6.09 5.89 5.04 3.88 3.14 2.72 2.34 1.87 1.52
3.12 3.24 3.41 3.60 3.74 3.63 3.80 3.65 3.73 3.93 3.97 3.78 3.88 3.81 3.73 3.49 3.30 2.86 2.45 2.34 2.58 2.68 2.65 2.43 2.42 2.75 2.91 3.40 3.56 2.96 2.64 2.60 2.97 4.17 5.35 5.60 5.11 4.10 3.36 3.14 3.08 2.66 2.03
2.91 2.89 3.11 3.33 3.46 3.35 3.32 3.52 3.86 3.81 3.72 3.68 3.81 3.83 3.98 3.80 3.45 3.29 2.91 2.63 2.50 2.26 2.33 2.38 2.35 2.44 2.66 3.06 3.24 2.71 2.55 2.32 2.24 2.64 3.45 4.08 4.35 4.06 3.60 3.51 3.78 3.74 3.26
2.81 2.74 2.83 3.17 3.28 3.22 3.20 3.30 3.39 3.44 3.48 3.65 3.65 3.54 3.77 3.80 3.62 3.66 3.28 2.90 2.60 2.12 2.05 2.13 2.24 2.36 2.49 2.68 2.42 2.29 2.40 2.21 2.05 2.05 2.33 2.80 3.28 3.54 3.48 3.59 3.93 4.22 4.22
2.73 2.72 2.72 2.87 2.81 2.81 2.91 3.14 3.17 3.12 3.17 3.29 3.26 3.29 3.28 3.19 3.29 3.47 3.43 2.97 2.61 2.10 2.03 1.92 1.94 2.17 2.17 2.51 2.56 2.41 2.24 2.10 1.95 1.91 1.99 2.11 2.41 2.72 3.01 3.26 3.70 4.13 4.36
2.64 2.60 2.54 2.50 2.43 2.45 2.50 2.87 2.95 2.89 2.99 3.02 2.91 3.18 3.03 2.85 3.03 3.04 3.14 3.28 3.01 2.64 2.53 2.27 1.90 1.93 2.16 2.40 2.52 2.43 2.09 2.09 1.93 1.86 1.85 1.87 1.98 2.12 2.32 2.58 2.89 3.16 3.45
2.26 2.35 2.32 2.23 2.20 2.30 2.45 2.59 2.61 2.62 2.77 2.74 2.76 2.83 2.65 2.63 2.73 2.75 2.92 3.20 3.31 3.07 2.91 2.69 2.27 2.01 2.07 2.30 2.61 2.35 2.19 2.10 1.92 1.81 1.70 1.66 1.68 1.73 1.80 1.93 2.12 2.33 2.47
2.24 2.17 2.12 2.05 2.06 2.11 2.20 2.38 2.36 2.46 2.45 2.42 2.56 2.60 2.55 2.50 2.65 2.60 2.65 2.88 3.12 3.18 2.96 2.67 2.41 2.09 2.18 2.13 2.35 2.26 2.25 2.21 1.93 1.73 1.56 1.47 1.47 1.53 1.62 1.69 1.75 1.87 1.93
2.32 2.29 2.22 2.18 2.04 1.98 2.07 2.18 2.05 2.19 2.19 2.19 2.17 2.24 2.27 2.43 2.57 2.54 2.60 2.66 2.93 3.23 3.13 2.89 2.64 2.46 2.38 2.35 2.19 2.12 2.03 1.93 1.74 1.62 1.42 1.33 1.32 1.35 1.40 1.48 1.57 1.69 1.76
1.98 2.00 1.96 1.97 1.96 2.05 2.15 2.06 2.00 2.04 2.12 2.09 2.16 2.31 2.20 2.35 2.51 2.45 2.56 2.57 2.74 3.09 3.23 3.32 3.27 2.97 2.70 2.55 2.49 2.28 1.88 1.72 1.75 1.71 1.52 1.37 1.30 1.28 1.27 1.29 1.38 1.52 1.63
1.94 1.91 1.90 1.90 1.92 2.10 2.23 2.17 2.14 2.21 2.23 2.12 2.22 2.26 2.14 2.27 2.33 2.35 2.41 2.47 2.64 2.85 3.12 3.09 3.14 3.06 2.89 2.64 2.75 2.46 2.13 2.07 1.70 1.65 1.58 1.42 1.33 1.28 1.25 1.26 1.30 1.34 1.42
1.99 2.05 2.05 2.00 2.01 1.96 2.00 2.14 2.27 2.27 2.24 2.15 2.14 2.06 1.94 1.94 2.03 2.20 2.21 2.34 2.56 2.77 2.96 2.91 2.97 3.07 3.12 3.10 3.14 2.89 2.69 2.45 2.08 1.67 1.68 1.50 1.43 1.32 1.20 1.15 1.16 1.22 1.33
1.93 2.14 2.16 2.11 2.10 1.99 1.86 1.96 2.07 2.01 2.06 2.03 1.97 1.80 1.61 1.65 1.75 1.84 1.77 2.12 2.44 2.57 2.66 2.74 2.83 3.03 3.16 3.37 3.19 3.04 2.92 2.85 2.54 2.12 2.05 1.70 1.56 1.35 1.19 1.14 1.15 1.15 1.22
2.05 2.09 2.05 2.06 1.96 1.68 1.74 1.70 1.67 1.72 1.80 1.82 1.86 1.82 1.66 1.55 1.50 1.54 1.52 1.68 2.00 2.16 2.36 2.65 2.78 2.98 3.08 3.11 3.28 3.25 3.19 3.04 2.75 2.43 2.42 2.31 2.13 1.97 1.68 1.37 1.28 1.14 1.08
1.99 1.89 1.82 1.84 1.79 1.72 1.58 1.39 1.36 1.47 1.65 1.74 1.78 1.80 1.57 1.43 1.50 1.38 1.46 1.52 1.54 1.63 1.79 2.17 2.45 2.56 2.62 2.68 2.99 3.10 3.09 2.97 2.88 2.72 2.78 2.73 2.58 2.33 1.89 1.68 1.58 1.33 1.20
1.85 1.86 1.74 1.74 1.82 1.71 1.61 1.37 1.27 1.25 1.44 1.50 1.49 1.52 1.57 1.55 1.46 1.50 1.48 1.47 1.38 1.40 1.48 1.51 1.66 1.88 2.16 2.41 2.63 2.84 3.12 3.07 3.00 2.91 2.88 2.96 2.79 2.62 2.23 1.93 1.79 1.53 1.43
1.80 1.80 1.79 1.81 1.80 1.74 1.67 1.46 1.36 1.35 1.46 1.47 1.50 1.51 1.60 1.66 1.66 1.51 1.45 1.48 1.49 1.52 1.48 1.48 1.42 1.50 1.64 1.78 1.96 2.25 2.61 2.94 3.14 3.12 2.91 3.00 2.94 2.95 2.87 2.47 2.03 1.79 1.54
1.79 1.79 1.85 1.83 1.74 1.70 1.57 1.38 1.36 1.39 1.58 1.67 1.78 1.77 1.67 1.54 1.53 1.41 1.42 1.51 1.49 1.50 1.43 1.40 1.35 1.31 1.30 1.43 1.60 1.79 2.08 2.46 2.75 2.90 2.82 2.96 3.12 3.46 3.59 3.07 2.46 2.03 1.79

GEFSMA_prec_meanprecacc_300.txt.gz
Total_Precipitation_Accumulation
3.49 3.58 3.53 3.49 3.18 3.23 3.44 3.74 3.59 3.79 3.77 3.33 2.86 2.70 2.68 2.67 2.61 2.74 3.04 3.09 2.89 2.97 3.78 4.27 4.14 3.80 3.32 2.83 2.53 2.38 2.32 2.11 1.87 1.63 1.53 1.62 1.61 1.59 1.47 1.25 1.10 0.95 0.78
3.85 3.89 3.84 3.75 3.35 3.20 3.50 3.82 3.80 4.32 4.21 4.02 3.45 3.09 2.88 2.84 2.79 2.90 3.23 3.45 3.37 3.29 3.78 4.40 4.65 4.58 4.13 3.53 3.04 2.73 2.68 2.58 2.30 1.86 1.67 1.77 1.83 1.73 1.64 1.47 1.24 1.06 0.86
4.03 3.91 3.89 3.71 3.58 3.48 3.64 3.71 3.83 4.27 4.04 4.01 3.85 3.52 3.30 3.07 2.88 3.08 3.47 3.83 3.46 3.37 3.75 4.30 4.72 4.72 4.56 4.27 3.73 3.29 2.95 2.72 2.54 2.18 1.85 1.73 1.76 1.70 1.62 1.54 1.36 1.11 0.84
3.99 4.08 3.83 3.63 3.69 3.63 3.83 4.13 4.13 4.23 4.38 4.32 4.09 3.76 3.58 3.47 3.01 3.04 3.19 3.39 3.65 3.16 3.58 4.28 4.56 4.33 4.44 4.69 4.61 4.31 3.78 3.14 2.84 2.51 2.16 1.92 1.86 1.76 1.63 1.55 1.44 1.20 0.90
3.76 4.13 3.99 3.98 3.88 4.08 3.98 3.63 4.24 4.48 4.48 4.38 3.77 3.72 3.33 3.29 3.21 2.97 3.08 3.14 3.35 3.30 3.37 3.51 4.14 3.98 4.22 4.80 5.12 5.22 4.91 4.23 3.52 3.06 2.67 2.37 2.20 1.94 1.71 1.58 1.47 1.25 1.00
3.78 4.08 3.87 3.85 4.00 4.37 4.41 4.27 4.57 4.50 4.34 4.40 3.69 3.48 3.19 2.89 2.87 2.83 2.64 2.87 2.94 2.67 2.91 3.17 3.59 3.07 3.34 3.89 4.44 5.12 5.53 5.41 4.66 3.83 3.43 3.17 2.96 2.48 1.96 1.67 1.45 1.28 1.09
3.61 3.99 3.71 4.10 4.12 4.30 4.42 4.37 4.60 4.50 4.26 4.36 4.33 3.74 3.10 2.69 2.60 2.40 2.40 2.64 2.57 2.61 2.95 3.42 3.71 3.57 3.15 3.11 3.42 4.20 5.19 5.76 5.50 4.72 4.24 3.94 3.70 3.19 2.42 1.99 1.61 1.34 1.21
3.35 3.46 4.01 3.98 4.08 4.30 4.35 4.30 4.36 4.11 3.81 4.18 4.54 4.37 3.59 3.11 2.65 2.16 2.39 2.42 2.56 2.85 2.87 2.93 3.39 3.76 3.55 3.57 3.13 3.16 4.32 5.42 5.93 5.67 5.27 4.86 4.44 3.68 2.94 2.43 1.91 1.54 1.37
3.40 3.53 3.80 3.90 4.01 3.90 4.11 4.30 4.10 4.02 3.90 3.95 4.21 4.47 3.96 3.29 2.75 2.40 2.27 2.33 2.70 2.97 2.81 2.76 2.75 3.02 3.09 3.58 3.73 3.19 3.37 3.81 4.66 5.75 6.16 5.95 5.10 3.94 3.22 2.80 2.40 1.92 1.57
3.19 3.31 3.49 3.70 3.84 3.73 3.89 3.73 3.82 3.99 4.04 3.85 3.94 3.86 3.77 3.52 3.33 2.88 2.46 2.35 2.59 2.69 2.66 2.44 2.44 2.76 2.93 3.42 3.58 2.99 2.68 2.65 3.04 4.24 5.41 5.65 5.18 4.17 3.42 3.19 3.14 2.72 2.09
3.02 3.00 3.22 3.42 3.55 3.43 3.41 3.62 3.98 3.92 3.86 3.74 3.85 3.86 4.01 3.82 3.47 3.31 2.93 2.65 2.51 2.27 2.35 2.40 2.37 2.46 2.68 3.08 3.26 2.73 2.58 2.37 2.30 2.70 3.49 4.12 4.40 4.12 3.66 3.57 3.85 3.82 3.33
2.91 2.84 2.95 3.25 3.34 3.27 3.24 3.38 3.50 3.56 3.58 3.70 3.69 3.57 3.80 3.84 3.66 3.70 3.31 2.91 2.61 2.14 2.06 2.15 2.26 2.40 2.52 2.70 2.46 2.32 2.45 2.27 2.10 2.09 2.37 2.84 3.32 3.58 3.51 3.63 3.99 4.29 4.30
2.78 2.78 2.79 2.93 2.86 2.86 2.96 3.21 3.25 3.19 3.22 3.33 3.29 3.32 3.31 3.23 3.33 3.51 3.46 3.00 2.64 2.13 2.05 1.94 1.96 2.19 2.20 2.53 2.59 2.46 2.30 2.18 2.02 1.96 2.02 2.14 2.44 2.75 3.05 3.29 3.73 4.17 4.41
2.67 2.64 2.57 2.53 2.46 2.48 2.54 2.92 3.01 2.94 3.03 3.07 2.96 3.23 3.07 2.90 3.08 3.09 3.19 3.34 3.06 2.67 2.55 2.28 1.91 1.94 2.18 2.42 2.54 2.46 2.12 2.13 1.97 1.89 1.87 1.90 2.00 2.15 2.35 2.61 2.91 3.20 3.48
2.28 2.37 2.33 2.24 2.21 2.32 2.47 2.62 2.65 2.65 2.80 2.77 2.80 2.88 2.68 2.65 2.76 2.78 2.95 3.23 3.34 3.10 2.93 2.70 2.27 2.02 2.08 2.31 2.63 2.37 2.21 2.11 1.94 1.83 1.72 1.68 1.70 1.75 1.83 1.95 2.14 2.35 2.48
2.26 2.18 2.12 2.06 2.07 2.12 2.20 2.40 2.38 2.48 2.48 2.45 2.58 2.62 2.57 2.53 2.67 2.61 2.67 2.90 3.15 3.21 2.98 2.69 2.43 2.10 2.19 2.14 2.37 2.27 2.28 2.24 1.95 1.75 1.58 1.49 1.49 1.55 1.64 1.71 1.77 1.89 1.94
2.33 2.29 2.23 2.18 2.04 1.98 2.07 2.18 2.06 2.20 2.21 2.21 2.19 2.26 2.29 2.46 2.60 2.57 2.62 2.68 2.95 3.26 3.15 2.91 2.65 2.47 2.39 2.37 2.21 2.15 2.06 1.96 1.77 1.65 1.44 1.35 1.35 1.38 1.42 1.50 1.59 1.70 1.78
1.99 2.01 1.97 1.97 1.97 2.06 2.17 2.08 2.02 2.06 2.14 2.11 2.19 2.34 2.23 2.38 2.54 2.48 2.59 2.60 2.77 3.13 3.27 3.36 3.29 2.98 2.72 2.58 2.52 2.31 1.91 1.74 1.78 1.74 1.55 1.41 1.33 1.30 1.29 1.32 1.39 1.53 1.64
1.96 1.92 1.91 1.91 1.93 2.12 2.25 2.19 2.16 2.23 2.26 2.15 2.24 2.28 2.16 2.28 2.34 2.37 2.44 2.50 2.67 2.89 3.16 3.13 3.17 3.09 2.93 2.68 2.81 2.51 2.18 2.11 1.74 1.69 1.63 1.46 1.37 1.31 1.28 1.28 1.32 1.37 1.44
2.02 2.07 2.07 2.02 2.04 1.99 2.02 2.16 2.28 2.29 2.26 2.16 2.15 2.07 1.95 1.96 2.04 2.23 2.24 2.37 2.59 2.79 2.98 2.93 3.00 3.11 3.17 3.17 3.21 2.96 2.76 2.50 2.13 1.72 1.73 1.55 1.48 1.37 1.25 1.19 1.20 1.26 1.37
1.97 2.18 2.19 2.15 2.14 2.02 1.89 1.98 2.09 2.03 2.07 2.04 1.98 1.81 1.62 1.66 1.76 1.86 1.80 2.15 2.46 2.59 2.68 2.76 2.86 3.06 3.20 3.43 3.25 3.11 2.99 2.92 2.60 2.16 2.09 1.75 1.61 1.41 1.24 1.20 1.20 1.20 1.26
2.11 2.14 2.10 2.11 2.01 1.72 1.78 1.73 1.69 1.73 1.80 1.83 1.86 1.83 1.67 1.56 1.52 1.56 1.54 1.71 2.03 2.18 2.39 2.68 2.82 3.02 3.12 3.14 3.32 3.30 3.24 3.09 2.79 2.47 2.45 2.37 2.20 2.02 1.73 1.41 1.32 1.19 1.12
2.03 1.93 1.87 1.88 1.83 1.75 1.61 1.41 1.36 1.47 1.66 1.74 1.79 1.81 1.57 1.45 1.52 1.40 1.48 1.55 1.58 1.68 1.86 2.24 2.51 2.61 2.66 2.71 3.02 3.13 3.13 3.00 2.91 2.76 2.81 2.77 2.63 2.36 1.92 1.70 1.61 1.37 1.25
1.88 1.89 1.79 1.78 1.85 1.74 1.64 1.39 1.29 1.26 1.45 1.51 1.50 1.54 1.58 1.57 1.48 1.51 1.49 1.48 1.40 1.43 1.53 1.58 1.74 1.96 2.22 2.47 2.68 2.88 3.15 3.10 3.03 2.94 2.90 2.98 2.81 2.65 2.26 1.96 1.81 1.56 1.46
1.82 1.82 1.81 1.83 1.82 1.75 1.69 1.48 1.39 1.36 1.47 1.49 1.52 1.53 1.62 1.67 1.67 1.51 1.46 1.49 1.50 1.53 1.49 1.51 1.46 1.55 1.70 1.82 2.00 2.29 2.64 2.97 3.17 3.14 2.93 3.03 2.96 2.97 2.89 2.49 2.06 1.83 1.57
1.81 1.81 1.86 1.84 1.75 1.70 1.59 1.42 1.40 1.41 1.60 1.70 1.82 1.80 1.70 1.57 1.55 1.43 1.42 1.52 1.50 1.50 1.43 1.41 1.36 1.33 1.33 1.45 1.62 1.81 2.10 2.48 2.77 2.92 2.84 2.98 3.15 3.49 3.63 3.11 2.49 2.05 1.82

GEFSMA_prec_meanprecacc_306.txt.gz
Total_Precipitation_Accumulation
3.63 3.73 3.71 3.66 3.31 3.36 3.57 3.87 3.68 3.86 3.84 3.39 2.90 2.74 2.71 2.71 2.66 2.78 3.08 3.13 2.91 3.00 3.81 4.31 4.18 3.83 3.36 2.87 2.57 2.43 2.38 2.19 1.95 1.70 1.60 1.69 1.68 1.66 1.55 1.31 1.16 1.00 0.82
3.97 4.03 3.99 3.89 3.47 3.33 3.64 3.96 3.90 4.40 4.30 4.09 3.49 3.12 2.93 2.88 2.83 2.93 3.25 3.48 3.40 3.33 3.81 4.43 4.69 4.63 4.18 3.58 3.08 2.77 2.75 2.66 2.39 1.95 1.76 1.86 1.92 1.83 1.74 1.55 1.30 1.12 0.91
4.14 4.00 4.00 3.83 3.68 3.59 3.76 3.84 3.94 4.35 4.11 4.08 3.90 3.56 3.34 3.11 2.91 3.11 3.49 3.87 3.51 3.41 3.79 4.33 4.76 4.76 4.61 4.32 3.78 3.34 3.01 2.80 2.63 2.26 1.92 1.80 1.83 1.77 1.70 1.62 1.44 1.20 0.95
4.05 4.14 3.91 3.71 3.76 3.71 3.92 4.22 4.21 4.31 4.44 4.39 4.16 3.84 3.64 3.51 3.05 3.08 3.24 3.44 3.69 3.19 3.62 4.33 4.63 4.39 4.50 4.74 4.65 4.36 3.83 3.19 2.89 2.56 2.21 1.96 1.89 1.80 1.67 1.60 1.50 1.30 1.03
3.81 4.19 4.06 4.05 3.95 4.16 4.07 3.70 4.34 4.56 4.56 4.49 3.89 3.84 3.41 3.34 3.26 3.03 3.15 3.21 3.41 3.34 3.40 3.55 4.18 4.02 4.26 4.83 5.17 5.27 4.95 4.27 3.56 3.09 2.71 2.41 2.24 1.98 1.75 1.62 1.51 1.31 1.08
3.84 4.14 3.93 3.92 4.07 4.47 4.52 4.38 4.69 4.62 4.46 4.56 3.83 3.57 3.24 2.92 2.90 2.88 2.69 2.92 2.97 2.68 2.92 3.17 3.60 3.08 3.36 3.90 4.47 5.16 5.57 5.46 4.71 3.87 3.47 3.20 2.99 2.51 1.99 1.70 1.49 1.32 1.15
3.69 4.08 3.80 4.20 4.21 4.39 4.50 4.46 4.70 4.58 4.32 4.42 4.40 3.80 3.14 2.71 2.63 2.44 2.44 2.66 2.58 2.62 2.95 3.43 3.71 3.58 3.16 3.13 3.43 4.22 5.23 5.81 5.56 4.78 4.28 3.97 3.73 3.21 2.45 2.02 1.64 1.38 1.25
3.41 3.51 4.11 4.08 4.17 4.39 4.43 4.38 4.43 4.17 3.86 4.24 4.60 4.44 3.64 3.15 2.68 2.18 2.42 2.45 2.58 2.86 2.87 2.93 3.39 3.77 3.56 3.59 3.15 3.17 4.34 5.46 5.98 5.73 5.34 4.94 4.51 3.73 2.98 2.47 1.96 1.58 1.40
3.43 3.56 3.86 3.98 4.08 3.98 4.20 4.39 4.19 4.09 3.96 4.02 4.27 4.55 4.06 3.38 2.82 2.44 2.29 2.36 2.72 2.99 2.82 2.76 2.75 3.03 3.11 3.60 3.76 3.22 3.39 3.84 4.71 5.81 6.23 6.02 5.18 4.02 3.29 2.86 2.44 1.96 1.61
3.23 3.34 3.55 3.77 3.91 3.80 3.97 3.82 3.91 4.08 4.12 3.92 4.01 3.92 3.84 3.61 3.44 2.97 2.51 2.38 2.62 2.71 2.68 2.45 2.44 2.78 2.95 3.43 3.61 3.01 2.69 2.67 3.06 4.27 5.46 5.71 5.24 4.22 3.48 3.26 3.19 2.77 2.14
3.08 3.07 3.30 3.50 3.62 3.50 3.49 3.70 4.06 4.00 3.93 3.80 3.91 3.91 4.04 3.88 3.56 3.40 2.99 2.70 2.55 2.29 2.37 2.41 2.38 2.47 2.69 3.09 3.28 2.75 2.60 2.38 2.32 2.72 3.52 4.16 4.45 4.16 3.70 3.62 3.90 3.87 3.39
3.01 2.95 3.06 3.36 3.42 3.34 3.33 3.46 3.57 3.62 3.65 3.75 3.75 3.63 3.86 3.89 3.71 3.76 3.36 2.97 2.66 2.17 2.09 2.18 2.29 2.42 2.54 2.73 2.47 2.34 2.46 2.29 2.12 2.11 2.39 2.86 3.35 3.62 3.56 3.67 4.04 4.35 4.37
2.89 2.89 2.89 3.04 2.96 2.95 3.05 3.30 3.32 3.25 3.28 3.39 3.35 3.39 3.39 3.30 3.40 3.58 3.54 3.09 2.71 2.18 2.09 1.97 1.97 2.20 2.21 2.54 2.61 2.48 2.32 2.19 2.03 1.98 2.04 2.16 2.46 2.77 3.07 3.33 3.78 4.24 4.50
2.75 2.72 2.64 2.60 2.54 2.56 2.62 3.00 3.07 3.00 3.08 3.11 3.01 3.30 3.15 2.97 3.16 3.18 3.28 3.44 3.15 2.74 2.59 2.30 1.92 1.94 2.19 2.43 2.55 2.47 2.13 2.14 1.98 1.91 1.89 1.91 2.02 2.16 2.36 2.63 2.96 3.26 3.57
2.31 2.42 2.37 2.28 2.25 2.36 2.52 2.66 2.69 2.69 2.84 2.81 2.85 2.94 2.75 2.71 2.80 2.83 3.01 3.31 3.43 3.18 2.98 2.72 2.30 2.04 2.10 2.33 2.65 2.38 2.22 2.13 1.96 1.85 1.74 1.70 1.71 1.76 1.84 1.97 2.17 2.39 2.53
2.28 2.20 2.14 2.07 2.09 2.14 2.23 2.42 2.41 2.51 2.51 2.49 2.62 2.66 2.63 2.57 2.71 2.66 2.70 2.95 3.20 3.28 3.05 2.74 2.46 2.13 2.22 2.17 2.40 2.29 2.29 2.25 1.97 1.77 1.59 1.50 1.50 1.56 1.66 1.73 1.80 1.93 1.99
2.34 2.31 2.24 2.19 2.06 2.00 2.09 2.20 2.07 2.22 2.22 2.24 2.22 2.30 2.35 2.52 2.66 2.61 2.67 2.73 3.00 3.32 3.23 2.97 2.69 2.51 2.43 2.41 2.25 2.17 2.08 1.98 1.80 1.68 1.46 1.37 1.37 1.39 1.45 1.53 1.62 1.75 1.83
2.00 2.02 1.98 1.98 1.98 2.07 2.18 2.10 2.04 2.08 2.16 2.14 2.22 2.38 2.27 2.45 2.59 2.51 2.62 2.64 2.82 3.18 3.33 3.41 3.33 3.03 2.77 2.63 2.56 2.35 1.93 1.77 1.81 1.79 1.59 1.43 1.35 1.33 1.32 1.35 1.43 1.57 1.69
1.97 1.93 1.92 1.92 1.95 2.14 2.26 2.21 2.19 2.25 2.29 2.17 2.28 2.32 2.20 2.32 2.38 2.40 2.46 2.53 2.71 2.92 3.20 3.17 3.20 3.13 2.98 2.74 2.84 2.54 2.21 2.14 1.76 1.72 1.66 1.50 1.40 1.34 1.31 1.32 1.36 1.41 1.50
2.03 2.09 2.08 2.03 2.05 2.00 2.03 2.17 2.30 2.31 2.28 2.19 2.17 2.09 1.98 1.99 2.07 2.25 2.26 2.40 2.61 2.81 3.01 2.96 3.02 3.12 3.20 3.21 3.24 2.99 2.78 2.54 2.16 1.74 1.76 1.58 1.51 1.41 1.29 1.23 1.24 1.30 1.42
1.98 2.19 2.20 2.16 2.15 2.02 1.90 1.99 2.10 2.05 2.09 2.05 1.99 1.82 1.64 1.69 1.79 1.88 1.81 2.17 2.49 2.61 2.70 2.78 2.87 3.07 3.23 3.47 3.27 3.13 3.01 2.95 2.64 2.20 2.13 1.78 1.66 1.46 1.30 1.25 1.25 1.26 1.32
2.14 2.17 2.12 2.12 2.03 1.73 1.79 1.74 1.70 1.74 1.81 1.84 1.87 1.84 1.68 1.58 1.54 1.58 1.56 1.72 2.04 2.20 2.40 2.69 2.82 3.03 3.13 3.16 3.33 3.31 3.26 3.11 2.82 2.50 2.49 2.40 2.24 2.09 1.80 1.48 1.40 1.26 1.19
2.06 1.96 1.90 1.90 1.85 1.77 1.62 1.41 1.37 1.49 1.67 1.75 1.80 1.82 1.58 1.47 1.53 1.41 1.50 1.56 1.60 1.70 1.87 2.25 2.52 2.62 2.68 2.73 3.04 3.15 3.16 3.03 2.93 2.79 2.85 2.83 2.69 2.45 2.01 1.79 1.71 1.46 1.33
1.90 1.92 1.82 1.80 1.87 1.77 1.67 1.42 1.32 1.28 1.46 1.52 1.51 1.55 1.59 1.57 1.49 1.53 1.51 1.50 1.42 1.45 1.55 1.59 1.76 1.98 2.26 2.50 2.71 2.91 3.19 3.15 3.08 2.99 2.95 3.05 2.89 2.73 2.33 2.04 1.91 1.66 1.54
1.86 1.87 1.85 1.87 1.85 1.79 1.72 1.50 1.41 1.37 1.48 1.50 1.53 1.54 1.63 1.69 1.71 1.56 1.50 1.53 1.53 1.55 1.51 1.52 1.47 1.57 1.74 1.88 2.06 2.34 2.70 3.04 3.25 3.22 3.00 3.09 3.04 3.04 2.96 2.55 2.13 1.92 1.65
1.89 1.88 1.92 1.88 1.78 1.73 1.62 1.43 1.41 1.42 1.61 1.71 1.82 1.81 1.72 1.60 1.61 1.50 1.47 1.55 1.53 1.53 1.45 1.42 1.37 1.35 1.35 1.49 1.68 1.88 2.18 2.56 2.85 3.01 2.93 3.05 3.22 3.55 3.69 3.16 2.55 2.11 1.88

GEFSMA_prec_meanprecacc_312.txt.gz
Total_Precipitation_Accumulation
3.82 3.93 3.90 3.85 3.47 3.52 3.73 4.05 3.84 4.01 3.97 3.48 2.97 2.80 2.76 2.75 2.70 2.82 3.12 3.15 2.93 3.02 3.83 4.34 4.21 3.87 3.38 2.89 2.59 2.45 2.41 2.22 2.01 1.75 1.63 1.74 1.73 1.70 1.61 1.38 1.21 1.04 0.85
4.15 4.22 4.18 4.06 3.60 3.46 3.77 4.14 4.06 4.55 4.44 4.19 3.56 3.18 2.97 2.93 2.88 2.97 3.30 3.51 3.43 3.35 3.83 4.46 4.73 4.67 4.21 3.60 3.11 2.81 2.78 2.71 2.44 1.99 1.80 1.91 1.96 1.88 1.79 1.60 1.35 1.17 0.94
4.33 4.17 4.15 3.95 3.80 3.72 3.89 4.06 4.17 4.55 4.27 4.19 3.99 3.62 3.39 3.16 2.98 3.17 3.55 3.93 3.57 3.46 3.84 4.38 4.81 4.81 4.65 4.35 3.81 3.38 3.04 2.83 2.67 2.30 1.96 1.84 1.87 1.80 1.73 1.65 1.49 1.25 1.00
4.21 4.31 4.04 3.83 3.90 3.83 4.08 4.44 4.46 4.54 4.64 4.53 4.28 3.94 3.71 3.58 3.10 3.14 3.32 3.53 3.77 3.26 3.69 4.40 4.67 4.42 4.52 4.76 4.68 4.39 3.86 3.21 2.92 2.59 2.24 1.99 1.91 1.82 1.69 1.62 1.52 1.34 1.07
3.92 4.35 4.21 4.18 4.10 4.29 4.24 3.90 4.54 4.77 4.78 4.70 4.04 3.95 3.49 3.42 3.33 3.12 3.23 3.30 3.52 3.44 3.47 3.58 4.20 4.04 4.27 4.85 5.20 5.30 4.97 4.29 3.58 3.12 2.74 2.44 2.26 1.99 1.76 1.63 1.53 1.33 1.11
3.95 4.29 4.10 4.09 4.25 4.66 4.74 4.61 4.91 4.82 4.64 4.71 3.93 3.66 3.33 3.00 2.98 2.95 2.75 2.99 3.04 2.73 2.95 3.20 3.63 3.10 3.37 3.92 4.49 5.19 5.59 5.48 4.72 3.89 3.50 3.23 3.01 2.54 2.01 1.71 1.50 1.33 1.16
3.79 4.22 3.93 4.38 4.39 4.58 4.70 4.63 4.86 4.73 4.46 4.53 4.51 3.93 3.25 2.79 2.70 2.51 2.50 2.73 2.66 2.66 2.98 3.45 3.73 3.60 3.18 3.15 3.45 4.25 5.25 5.84 5.59 4.81 4.31 4.00 3.76 3.24 2.48 2.04 1.66 1.40 1.27
3.47 3.60 4.21 4.20 4.31 4.53 4.58 4.53 4.58 4.31 4.00 4.37 4.72 4.58 3.78 3.27 2.77 2.23 2.46 2.50 2.62 2.91 2.91 2.96 3.42 3.80 3.59 3.63 3.18 3.19 4.36 5.48 6.01 5.78 5.38 4.97 4.55 3.77 3.02 2.50 1.99 1.61 1.43
3.47 3.61 3.94 4.07 4.18 4.08 4.32 4.53 4.32 4.23 4.12 4.16 4.40 4.71 4.24 3.55 2.94 2.52 2.36 2.41 2.77 3.04 2.87 2.80 2.78 3.06 3.15 3.64 3.81 3.25 3.41 3.86 4.74 5.85 6.26 6.06 5.22 4.06 3.33 2.90 2.49 2.01 1.65
3.25 3.38 3.60 3.83 3.99 3.89 4.09 3.93 4.02 4.19 4.25 4.04 4.11 4.02 3.98 3.73 3.55 3.07 2.59 2.46 2.70 2.79 2.73 2.49 2.49 2.83 2.98 3.47 3.64 3.05 2.72 2.68 3.08 4.30 5.48 5.74 5.27 4.25 3.51 3.29 3.23 2.82 2.18
3.13 3.11 3.35 3.55 3.68 3.57 3.59 3.81 4.16 4.08 4.01 3.89 3.99 4.00 4.14 3.97 3.65 3.49 3.08 2.80 2.64 2.36 2.42 2.45 2.42 2.51 2.73 3.12 3.30 2.78 2.63 2.41 2.34 2.74 3.54 4.19 4.47 4.19 3.72 3.64 3.93 3.91 3.43
3.07 3.02 3.12 3.42 3.48 3.42 3.40 3.55 3.66 3.70 3.73 3.84 3.82 3.71 3.94 4.00 3.84 3.88 3.46 3.06 2.74 2.23 2.14 2.22 2.33 2.46 2.57 2.76 2.53 2.42 2.55 2.36 2.16 2.13 2.40 2.88 3.37 3.64 3.58 3.70 4.07 4.39 4.41
2.95 2.93 2.93 3.09 3.03 3.02 3.13 3.38 3.41 3.35 3.37 3.47 3.43 3.46 3.47 3.39 3.53 3.70 3.63 3.16 2.78 2.23 2.15 2.02 2.01 2.24 2.27 2.65 2.69 2.57 2.40 2.24 2.06 2.00 2.06 2.18 2.48 2.80 3.10 3.36 3.81 4.27 4.54
2.81 2.78 2.69 2.64 2.58 2.61 2.69 3.08 3.16 3.09 3.17 3.20 3.09 3.39 3.24 3.05 3.27 3.30 3.38 3.53 3.24 2.82 2.67 2.38 1.98 2.00 2.25 2.51 2.62 2.53 2.18 2.18 2.01 1.93 1.91 1.93 2.04 2.19 2.39 2.66 2.98 3.29 3.59
2.39 2.53 2.47 2.34 2.30 2.41 2.57 2.73 2.77 2.77 2.91 2.88 2.92 3.01 2.82 2.79 2.88 2.91 3.11 3.41 3.52 3.28 3.07 2.82 2.37 2.11 2.16 2.41 2.72 2.42 2.25 2.18 2.00 1.89 1.78 1.73 1.74 1.79 1.87 2.00 2.19 2.41 2.55
2.35 2.32 2.28 2.19 2.18 2.22 2.30 2.49 2.47 2.57 2.58 2.57 2.69 2.74 2.71 2.66 2.80 2.74 2.79 3.04 3.30 3.38 3.15 2.81 2.52 2.19 2.28 2.21 2.46 2.34 2.35 2.30 2.02 1.80 1.62 1.54 1.54 1.60 1.69 1.76 1.82 1.95 2.00
2.39 2.37 2.34 2.30 2.15 2.08 2.17 2.27 2.14 2.29 2.28 2.30 2.29 2.37 2.41 2.59 2.72 2.67 2.72 2.79 3.07 3.39 3.31 3.03 2.73 2.55 2.49 2.46 2.30 2.23 2.14 2.03 1.85 1.72 1.50 1.40 1.40 1.42 1.48 1.54 1.64 1.77 1.84
2.04 2.07 2.04 2.04 2.03 2.13 2.24 2.16 2.10 2.13 2.21 2.18 2.26 2.41 2.31 2.48 2.63 2.55 2.67 2.69 2.87 3.25 3.40 3.47 3.37 3.06 2.81 2.66 2.61 2.39 1.96 1.80 1.86 1.82 1.63 1.46 1.37 1.34 1.34 1.37 1.46 1.61 1.73
2.00 1.97 1.97 1.96 2.00 2.18 2.30 2.25 2.24 2.29 2.31 2.20 2.30 2.34 2.22 2.36 2.42 2.44 2.50 2.57 2.76 2.97 3.27 3.22 3.24 3.17 3.00 2.76 2.87 2.56 2.23 2.17 1.77 1.73 1.68 1.51 1.41 1.35 1.32 1.33 1.38 1.44 1.54
2.06 2.12 2.11 2.06 2.09 2.02 2.05 2.19 2.33 2.34 2.31 2.21 2.20 2.12 2.01 2.01 2.10 2.29 2.30 2.43 2.65 2.84 3.04 2.99 3.05 3.15 3.23 3.24 3.26 3.01 2.81 2.57 2.18 1.75 1.77 1.60 1.53 1.42 1.29 1.23 1.25 1.32 1.45
2.02 2.23 2.24 2.20 2.18 2.04 1.91 2.02 2.14 2.08 2.12 2.07 2.02 1.85 1.66 1.72 1.83 1.91 1.84 2.19 2.52 2.64 2.73 2.81 2.90 3.09 3.24 3.49 3.29 3.15 3.03 2.97 2.66 2.21 2.15 1.80 1.67 1.47 1.31 1.27 1.27 1.27 1.34
2.20 2.22 2.16 2.16 2.05 1.75 1.81 1.75 1.72 1.77 1.85 1.86 1.89 1.86 1.71 1.61 1.56 1.60 1.57 1.74 2.06 2.22 2.42 2.72 2.85 3.05 3.15 3.17 3.33 3.32 3.27 3.12 2.83 2.52 2.51 2.42 2.26 2.12 1.82 1.49 1.41 1.29 1.22
2.11 2.00 1.94 1.94 1.89 1.80 1.65 1.43 1.38 1.51 1.70 1.78 1.82 1.85 1.60 1.48 1.55 1.43 1.51 1.57 1.61 1.71 1.89 2.27 2.54 2.63 2.69 2.74 3.05 3.16 3.16 3.04 2.95 2.80 2.86 2.84 2.71 2.47 2.03 1.80 1.72 1.48 1.36
1.94 1.95 1.85 1.83 1.91 1.80 1.69 1.44 1.33 1.30 1.49 1.55 1.54 1.58 1.62 1.60 1.51 1.55 1.53 1.52 1.43 1.46 1.57 1.60 1.78 2.00 2.27 2.52 2.73 2.93 3.21 3.16 3.09 3.01 2.97 3.06 2.91 2.76 2.36 2.07 1.94 1.68 1.57
1.90 1.90 1.88 1.90 1.89 1.82 1.75 1.53 1.43 1.40 1.51 1.53 1.56 1.58 1.66 1.71 1.72 1.58 1.53 1.56 1.56 1.57 1.52 1.53 1.48 1.58 1.75 1.89 2.07 2.36 2.72 3.06 3.26 3.24 3.03 3.12 3.07 3.08 3.00 2.59 2.18 1.98 1.72
1.92 1.91 1.94 1.90 1.80 1.76 1.65 1.47 1.44 1.44 1.63 1.74 1.85 1.84 1.75 1.62 1.62 1.51 1.48 1.57 1.55 1.55 1.47 1.43 1.38 1.36 1.36 1.50 1.69 1.91 2.22 2.59 2.88 3.04 2.97 3.09 3.27 3.60 3.75 3.22 2.60 2.19 1.96